Wetterdaten: Dienstag, 04.05.2010
Datum Zeit Temp. Innen Temp. Aussen UV X Diff Temp. Feuchte Inne Feuchte Auss Sonnenschein Luftdruck Regen ab 0,1 Wind Sonnenschein Windben
04.05.2010 00:00 17,4 C 8,1 C 0,0 UV-I 0,0 C 53 % 90 % 0 % 1018,1 hPa 0,0 l/m 12,0 km/h (2 Bft) 0 min 19,7 km/h (3 Bft)
04.05.2010 00:02 17,4 C 8,0 C 0,0 UV-I 0,0 C 53 % 90 % 0 % 1018,1 hPa 0,0 l/m 12,4 km/h (3 Bft) 0 min 13,3 km/h (3 Bft)
04.05.2010 00:04 17,4 C 8,0 C 0,0 UV-I 0,0 C 53 % 90 % 0 % 1018,1 hPa 0,0 l/m 12,4 km/h (3 Bft) 0 min 13,3 km/h (3 Bft)
04.05.2010 00:06 17,4 C 8,0 C 0,0 UV-I 0,0 C 53 % 90 % 0 % 1018,1 hPa 0,0 l/m 12,4 km/h (3 Bft) 0 min 12,4 km/h (3 Bft)
04.05.2010 00:10 17,4 C 7,9 C 0,0 UV-I 0,0 C 53 % 90 % 0 % 1018,1 hPa 0,0 l/m 13,3 km/h (3 Bft) 0 min 25,3 km/h (4 Bft)
04.05.2010 00:14 17,4 C 7,9 C 0,0 UV-I 0,0 C 53 % 90 % 0 % 1018,2 hPa 0,0 l/m 14,1 km/h (3 Bft) 0 min 18,1 km/h (3 Bft)
04.05.2010 00:16 17,4 C 7,9 C 0,0 UV-I 0,0 C 53 % 90 % 0 % 1018,2 hPa 0,0 l/m 14,1 km/h (3 Bft) 0 min 13,3 km/h (3 Bft)
04.05.2010 00:20 17,4 C 7,8 C 0,0 UV-I 0,0 C 53 % 90 % 0 % 1018,2 hPa 0,0 l/m 14,5 km/h (3 Bft) 0 min 18,9 km/h (3 Bft)
04.05.2010 00:30 17,2 C 7,7 C 0,0 UV-I 0,0 C 53 % 90 % 0 % 1018,2 hPa 0,0 l/m 15,3 km/h (3 Bft) 0 min 33,3 km/h (5 Bft)
04.05.2010 00:32 17,2 C 7,7 C 0,0 UV-I 0,0 C 53 % 90 % 0 % 1018,3 hPa 0,0 l/m 15,3 km/h (3 Bft) 0 min 12,4 km/h (3 Bft)
04.05.2010 00:34 17,4 C 7,7 C 0,0 UV-I 0,0 C 53 % 90 % 0 % 1018,3 hPa 0,0 l/m 15,7 km/h (3 Bft) 0 min 17,7 km/h (3 Bft)
04.05.2010 00:36 17,2 C 7,7 C 0,0 UV-I 0,0 C 53 % 90 % 0 % 1018,3 hPa 0,0 l/m 14,1 km/h (3 Bft) 0 min 11,6 km/h (2 Bft)
04.05.2010 00:38 17,2 C 7,6 C 0,0 UV-I 0,0 C 53 % 90 % 0 % 1018,3 hPa 0,0 l/m 14,5 km/h (3 Bft) 0 min 17,3 km/h (3 Bft)
04.05.2010 00:40 17,2 C 7,7 C 0,0 UV-I 0,0 C 53 % 90 % 0 % 1018,3 hPa 0,0 l/m 14,1 km/h (3 Bft) 0 min 35,3 km/h (5 Bft)
04.05.2010 00:44 17,2 C 7,6 C 0,0 UV-I 0,0 C 53 % 90 % 0 % 1018,3 hPa 0,0 l/m 14,1 km/h (3 Bft) 0 min 13,7 km/h (3 Bft)
04.05.2010 00:46 17,2 C 7,5 C 0,0 UV-I 0,0 C 53 % 90 % 0 % 1018,3 hPa 0,0 l/m 14,1 km/h (3 Bft) 0 min 15,7 km/h (3 Bft)
04.05.2010 00:48 17,2 C 7,5 C 0,0 UV-I 0,0 C 53 % 90 % 0 % 1018,3 hPa 0,0 l/m 13,3 km/h (3 Bft) 0 min 12,4 km/h (3 Bft)
04.05.2010 00:50 17,2 C 7,5 C 0,0 UV-I 0,0 C 53 % 90 % 0 % 1018,3 hPa 0,0 l/m 11,6 km/h (2 Bft) 0 min 9,2 km/h (2 Bft)
04.05.2010 00:52 17,2 C 7,4 C 0,0 UV-I 0,0 C 53 % 91 % 0 % 1018,6 hPa 0,0 l/m 11,2 km/h (2 Bft) 0 min 35,7 km/h (5 Bft)
04.05.2010 00:54 17,2 C 7,5 C 0,0 UV-I 0,0 C 53 % 91 % 0 % 1018,6 hPa 0,0 l/m 11,6 km/h (2 Bft) 0 min 27,7 km/h (4 Bft)
04.05.2010 00:56 17,2 C 7,5 C 0,0 UV-I 0,0 C 53 % 90 % 0 % 1018,6 hPa 0,0 l/m 12,4 km/h (3 Bft) 0 min 13,7 km/h (3 Bft)
04.05.2010 00:58 17,2 C 7,4 C 0,0 UV-I 0,0 C 53 % 90 % 0 % 1018,6 hPa 0,0 l/m 13,3 km/h (3 Bft) 0 min 20,5 km/h (4 Bft)
04.05.2010 01:02 17,2 C 7,3 C 0,0 UV-I 0,0 C 53 % 90 % 0 % 1018,6 hPa 0,0 l/m 14,9 km/h (3 Bft) 0 min 35,7 km/h (5 Bft)
04.05.2010 01:06 17,3 C 7,3 C 0,0 UV-I 0,0 C 53 % 90 % 0 % 1018,6 hPa 0,0 l/m 13,7 km/h (3 Bft) 0 min 19,3 km/h (3 Bft)
04.05.2010 01:08 17,3 C 7,2 C 0,0 UV-I 0,0 C 53 % 90 % 0 % 1018,6 hPa 0,0 l/m 13,7 km/h (3 Bft) 0 min 8,0 km/h (2 Bft)
04.05.2010 01:10 17,3 C 7,2 C 0,0 UV-I 0,0 C 53 % 90 % 0 % 1018,6 hPa 0,0 l/m 13,7 km/h (3 Bft) 0 min 21,3 km/h (4 Bft)
04.05.2010 01:12 17,2 C 7,2 C 0,0 UV-I 0,0 C 53 % 90 % 0 % 1018,8 hPa 0,0 l/m 13,3 km/h (3 Bft) 0 min 23,7 km/h (4 Bft)
04.05.2010 01:14 17,3 C 7,2 C 0,0 UV-I 0,0 C 53 % 90 % 0 % 1018,8 hPa 0,0 l/m 13,3 km/h (3 Bft) 0 min 16,1 km/h (3 Bft)
04.05.2010 01:16 17,3 C 7,2 C 0,0 UV-I 0,0 C 53 % 90 % 0 % 1018,8 hPa 0,0 l/m 13,7 km/h (3 Bft) 0 min 20,1 km/h (4 Bft)
04.05.2010 01:18 17,3 C 7,3 C 0,0 UV-I 0,0 C 53 % 89 % 0 % 1018,8 hPa 0,0 l/m 13,3 km/h (3 Bft) 0 min 30,1 km/h (5 Bft)
04.05.2010 01:20 17,2 C 7,3 C 0,0 UV-I 0,0 C 53 % 89 % 0 % 1018,8 hPa 0,0 l/m 14,1 km/h (3 Bft) 0 min 17,3 km/h (3 Bft)
04.05.2010 01:24 17,3 C 7,2 C 0,0 UV-I 0,0 C 53 % 89 % 0 % 1018,8 hPa 0,0 l/m 13,7 km/h (3 Bft) 0 min 24,1 km/h (4 Bft)
04.05.2010 01:26 17,3 C 7,2 C 0,0 UV-I 0,0 C 53 % 89 % 0 % 1018,8 hPa 0,0 l/m 13,7 km/h (3 Bft) 0 min 9,2 km/h (2 Bft)
04.05.2010 01:30 17,2 C 7,3 C 0,0 UV-I 0,0 C 53 % 89 % 0 % 1018,8 hPa 0,0 l/m 12,4 km/h (3 Bft) 0 min 22,1 km/h (4 Bft)
04.05.2010 01:32 17,2 C 7,2 C 0,0 UV-I 0,0 C 53 % 89 % 0 % 1018,8 hPa 0,0 l/m 12,4 km/h (3 Bft) 0 min 16,1 km/h (3 Bft)
04.05.2010 01:34 17,2 C 7,3 C 0,0 UV-I 0,0 C 53 % 89 % 0 % 1018,8 hPa 0,0 l/m 12,4 km/h (3 Bft) 0 min 14,5 km/h (3 Bft)
04.05.2010 01:44 17,2 C 7,2 C 0,0 UV-I 0,0 C 53 % 89 % 0 % 1018,8 hPa 0,0 l/m 13,7 km/h (3 Bft) 0 min 37,7 km/h (5 Bft)
04.05.2010 01:48 17,2 C 7,2 C 0,0 UV-I 0,0 C 53 % 89 % 0 % 1018,8 hPa 0,0 l/m 12,0 km/h (2 Bft) 0 min 23,7 km/h (4 Bft)
04.05.2010 01:56 17,2 C 7,2 C 0,0 UV-I 0,0 C 53 % 88 % 0 % 1019,0 hPa 0,0 l/m 12,4 km/h (3 Bft) 0 min 24,9 km/h (4 Bft)
04.05.2010 02:02 17,2 C 7,2 C 0,0 UV-I 0,0 C 53 % 88 % 0 % 1019,0 hPa 0,0 l/m 14,1 km/h (3 Bft) 0 min 23,3 km/h (4 Bft)
04.05.2010 02:10 17,2 C 7,3 C 0,0 UV-I 0,0 C 53 % 89 % 0 % 1019,0 hPa 0,0 l/m 12,4 km/h (3 Bft) 0 min 19,3 km/h (3 Bft)
04.05.2010 02:18 17,2 C 7,2 C 0,0 UV-I 0,0 C 53 % 89 % 0 % 1018,9 hPa 0,0 l/m 9,2 km/h (2 Bft) 0 min 16,9 km/h (3 Bft)
04.05.2010 02:32 17,2 C 7,2 C 0,0 UV-I 0,0 C 53 % 89 % 0 % 1019,2 hPa 0,0 l/m 8,4 km/h (2 Bft) 0 min 15,3 km/h (3 Bft)
04.05.2010 02:34 17,2 C 7,2 C 0,0 UV-I 0,0 C 53 % 89 % 0 % 1019,2 hPa 0,0 l/m 8,4 km/h (2 Bft) 0 min 12,4 km/h (3 Bft)
04.05.2010 02:38 17,2 C 7,2 C 0,0 UV-I 0,0 C 53 % 89 % 0 % 1019,2 hPa 0,0 l/m 8,0 km/h (2 Bft) 0 min 11,2 km/h (2 Bft)
04.05.2010 02:40 17,2 C 7,2 C 0,0 UV-I 0,0 C 53 % 89 % 0 % 1019,2 hPa 0,0 l/m 8,4 km/h (2 Bft) 0 min 10,4 km/h (2 Bft)
04.05.2010 02:46 17,2 C 7,3 C 0,0 UV-I 0,0 C 53 % 89 % 0 % 1019,2 hPa 0,0 l/m 10,0 km/h (2 Bft) 0 min 27,3 km/h (4 Bft)
04.05.2010 02:50 17,2 C 7,3 C 0,0 UV-I 0,0 C 53 % 89 % 0 % 1019,2 hPa 0,0 l/m 10,8 km/h (2 Bft) 0 min 8,4 km/h (2 Bft)
04.05.2010 02:52 17,2 C 7,3 C 0,0 UV-I 0,0 C 53 % 89 % 0 % 1019,2 hPa 0,0 l/m 11,2 km/h (2 Bft) 0 min 16,1 km/h (3 Bft)
04.05.2010 02:58 17,2 C 7,3 C 0,0 UV-I 0,0 C 53 % 89 % 0 % 1019,2 hPa 0,0 l/m 11,2 km/h (2 Bft) 0 min 17,7 km/h (3 Bft)
04.05.2010 03:00 17,2 C 7,3 C 0,0 UV-I 0,0 C 53 % 89 % 0 % 1019,2 hPa 0,0 l/m 10,4 km/h (2 Bft) 0 min 13,7 km/h (3 Bft)
04.05.2010 03:06 17,2 C 7,2 C 0,0 UV-I 0,0 C 53 % 89 % 0 % 1019,2 hPa 0,0 l/m 9,6 km/h (2 Bft) 0 min 12,0 km/h (2 Bft)
04.05.2010 03:14 17,1 C 7,2 C 0,0 UV-I 0,0 C 53 % 90 % 0 % 1019,4 hPa 0,0 l/m 11,2 km/h (2 Bft) 0 min 14,9 km/h (3 Bft)
04.05.2010 03:16 17,1 C 7,3 C 0,0 UV-I 0,0 C 53 % 90 % 0 % 1019,4 hPa 0,0 l/m 11,2 km/h (2 Bft) 0 min 8,4 km/h (2 Bft)
04.05.2010 03:18 17,1 C 7,3 C 0,0 UV-I 0,0 C 53 % 90 % 0 % 1019,4 hPa 0,0 l/m 11,2 km/h (2 Bft) 0 min 24,9 km/h (4 Bft)
04.05.2010 03:20 17,1 C 7,3 C 0,0 UV-I 0,0 C 53 % 90 % 0 % 1019,4 hPa 0,0 l/m 10,0 km/h (2 Bft) 0 min 20,5 km/h (4 Bft)
04.05.2010 03:24 17,1 C 7,2 C 0,0 UV-I 0,0 C 53 % 90 % 0 % 1019,4 hPa 0,0 l/m 9,6 km/h (2 Bft) 0 min 10,8 km/h (2 Bft)
04.05.2010 03:26 17,1 C 7,3 C 0,0 UV-I 0,0 C 53 % 90 % 0 % 1019,4 hPa 0,0 l/m 9,6 km/h (2 Bft) 0 min 14,5 km/h (3 Bft)
04.05.2010 03:30 17,1 C 7,3 C 0,0 UV-I 0,0 C 53 % 90 % 0 % 1019,4 hPa 0,0 l/m 10,0 km/h (2 Bft) 0 min 22,9 km/h (4 Bft)
04.05.2010 03:32 17,1 C 7,3 C 0,0 UV-I 0,0 C 53 % 90 % 0 % 1019,4 hPa 0,0 l/m 10,4 km/h (2 Bft) 0 min 24,5 km/h (4 Bft)
04.05.2010 03:34 17,1 C 7,3 C 0,0 UV-I 0,0 C 53 % 90 % 0 % 1019,4 hPa 0,0 l/m 10,4 km/h (2 Bft) 0 min 14,9 km/h (3 Bft)
04.05.2010 03:36 17,1 C 7,3 C 0,0 UV-I 0,0 C 53 % 90 % 0 % 1019,4 hPa 0,0 l/m 10,4 km/h (2 Bft) 0 min 12,8 km/h (3 Bft)
04.05.2010 03:38 17,1 C 7,3 C 0,0 UV-I 0,0 C 53 % 90 % 0 % 1019,4 hPa 0,0 l/m 10,8 km/h (2 Bft) 0 min 9,6 km/h (2 Bft)
04.05.2010 03:40 17,1 C 7,3 C 0,0 UV-I 0,0 C 53 % 90 % 0 % 1019,4 hPa 0,0 l/m 12,0 km/h (2 Bft) 0 min 19,3 km/h (3 Bft)
04.05.2010 03:44 17,1 C 7,3 C 0,0 UV-I 0,0 C 53 % 90 % 0 % 1019,4 hPa 0,0 l/m 11,2 km/h (2 Bft) 0 min 14,1 km/h (3 Bft)
04.05.2010 03:46 17,1 C 7,3 C 0,0 UV-I 0,0 C 53 % 90 % 0 % 1019,4 hPa 0,0 l/m 11,2 km/h (2 Bft) 0 min 15,3 km/h (3 Bft)
04.05.2010 03:52 17,1 C 7,3 C 0,0 UV-I 0,0 C 53 % 90 % 0 % 1019,4 hPa 0,0 l/m 10,0 km/h (2 Bft) 0 min 14,5 km/h (3 Bft)
04.05.2010 03:58 17,1 C 7,3 C 0,0 UV-I 0,0 C 53 % 90 % 0 % 1019,4 hPa 0,0 l/m 11,2 km/h (2 Bft) 0 min 14,5 km/h (3 Bft)
04.05.2010 04:08 17,1 C 7,3 C 0,0 UV-I 0,0 C 53 % 90 % 0 % 1019,4 hPa 0,0 l/m 10,8 km/h (2 Bft) 0 min 18,5 km/h (3 Bft)
04.05.2010 04:10 17,1 C 7,3 C 0,0 UV-I 0,0 C 53 % 90 % 0 % 1019,4 hPa 0,0 l/m 10,8 km/h (2 Bft) 0 min 7,6 km/h (2 Bft)
04.05.2010 04:13 17,1 C 7,3 C 0,0 UV-I 0,0 C 53 % 90 % 0 % 1019,4 hPa 0,0 l/m 10,8 km/h (2 Bft) 0 min 16,5 km/h (3 Bft)
04.05.2010 04:19 17,1 C 7,3 C 0,0 UV-I 0,0 C 53 % 91 % 0 % 1019,4 hPa 0,0 l/m 10,4 km/h (2 Bft) 0 min 7,6 km/h (2 Bft)
04.05.2010 04:22 17,1 C 7,3 C 0,0 UV-I 0,0 C 53 % 90 % 0 % 1019,4 hPa 0,0 l/m 10,8 km/h (2 Bft) 0 min 8,8 km/h (2 Bft)
04.05.2010 04:24 17,1 C 7,3 C 0,0 UV-I 0,0 C 53 % 90 % 0 % 1019,4 hPa 0,0 l/m 10,0 km/h (2 Bft) 0 min 8,0 km/h (2 Bft)
04.05.2010 04:26 17,1 C 7,3 C 0,0 UV-I 0,0 C 53 % 90 % 0 % 1019,4 hPa 0,0 l/m 10,0 km/h (2 Bft) 0 min 10,4 km/h (2 Bft)
04.05.2010 04:28 17,0 C 7,3 C 0,0 UV-I 0,0 C 53 % 90 % 0 % 1019,4 hPa 0,0 l/m 10,4 km/h (2 Bft) 0 min 12,0 km/h (2 Bft)
04.05.2010 04:30 17,0 C 7,3 C 0,0 UV-I 0,0 C 53 % 90 % 0 % 1019,4 hPa 0,0 l/m 10,0 km/h (2 Bft) 0 min 12,0 km/h (2 Bft)
04.05.2010 04:32 17,0 C 7,3 C 0,0 UV-I 0,0 C 53 % 90 % 0 % 1019,6 hPa 0,0 l/m 9,2 km/h (2 Bft) 0 min 0,0 km/h (0 Bft)
04.05.2010 04:34 17,1 C 7,3 C 0,0 UV-I 0,0 C 53 % 90 % 0 % 1019,6 hPa 0,0 l/m 8,8 km/h (2 Bft) 0 min 17,7 km/h (3 Bft)
04.05.2010 04:36 17,1 C 7,3 C 0,0 UV-I 0,0 C 53 % 90 % 0 % 1019,6 hPa 0,0 l/m 8,4 km/h (2 Bft) 0 min 11,2 km/h (2 Bft)
04.05.2010 04:38 17,1 C 7,4 C 0,0 UV-I 0,0 C 53 % 90 % 0 % 1019,6 hPa 0,0 l/m 7,6 km/h (2 Bft) 0 min 4,4 km/h (1 Bft)
04.05.2010 04:40 17,1 C 7,4 C 0,0 UV-I 0,0 C 53 % 90 % 0 % 1019,6 hPa 0,0 l/m 8,0 km/h (2 Bft) 0 min 9,2 km/h (2 Bft)
04.05.2010 04:42 17,1 C 7,4 C 0,0 UV-I 0,0 C 53 % 90 % 0 % 1019,6 hPa 0,0 l/m 8,0 km/h (2 Bft) 0 min 12,8 km/h (3 Bft)
04.05.2010 04:44 17,0 C 7,3 C 0,0 UV-I 0,0 C 53 % 90 % 0 % 1019,6 hPa 0,0 l/m 8,4 km/h (2 Bft) 0 min 10,8 km/h (2 Bft)
04.05.2010 04:46 17,0 C 7,3 C 0,0 UV-I 0,0 C 53 % 90 % 0 % 1019,6 hPa 0,0 l/m 8,4 km/h (2 Bft) 0 min 9,6 km/h (2 Bft)
04.05.2010 04:48 17,0 C 7,4 C 0,0 UV-I 0,0 C 53 % 90 % 0 % 1019,6 hPa 0,0 l/m 8,4 km/h (2 Bft) 0 min 13,7 km/h (3 Bft)
04.05.2010 04:50 17,0 C 7,5 C 0,0 UV-I 0,0 C 53 % 90 % 0 % 1019,6 hPa 0,0 l/m 8,0 km/h (2 Bft) 0 min 6,0 km/h (2 Bft)
04.05.2010 04:52 17,0 C 7,4 C 0,0 UV-I 0,0 C 53 % 90 % 0 % 1019,8 hPa 0,0 l/m 7,2 km/h (2 Bft) 0 min 15,7 km/h (3 Bft)
04.05.2010 04:54 17,0 C 7,4 C 0,0 UV-I 0,0 C 53 % 90 % 0 % 1019,8 hPa 0,0 l/m 7,6 km/h (2 Bft) 0 min 9,6 km/h (2 Bft)
04.05.2010 04:56 17,0 C 7,4 C 0,0 UV-I 0,0 C 53 % 90 % 0 % 1019,8 hPa 0,0 l/m 8,0 km/h (2 Bft) 0 min 7,6 km/h (2 Bft)
04.05.2010 04:58 17,0 C 7,5 C 0,0 UV-I 0,0 C 53 % 90 % 0 % 1019,8 hPa 0,0 l/m 7,2 km/h (2 Bft) 0 min 8,8 km/h (2 Bft)
04.05.2010 05:00 17,0 C 7,5 C 0,0 UV-I 0,0 C 53 % 90 % 0 % 1019,8 hPa 0,0 l/m 6,8 km/h (2 Bft) 0 min 7,6 km/h (2 Bft)
04.05.2010 05:02 17,0 C 7,5 C 0,0 UV-I 0,0 C 53 % 90 % 0 % 1019,8 hPa 0,0 l/m 7,2 km/h (2 Bft) 0 min 6,0 km/h (2 Bft)
04.05.2010 05:04 17,0 C 7,5 C 0,0 UV-I 0,0 C 53 % 90 % 0 % 1019,8 hPa 0,0 l/m 6,8 km/h (2 Bft) 0 min 11,2 km/h (2 Bft)
04.05.2010 05:06 17,0 C 7,5 C 0,0 UV-I 0,0 C 53 % 90 % 0 % 1019,8 hPa 0,0 l/m 6,0 km/h (2 Bft) 0 min 8,8 km/h (2 Bft)
04.05.2010 05:08 17,0 C 7,5 C 0,0 UV-I 0,0 C 53 % 90 % 0 % 1019,8 hPa 0,0 l/m 6,0 km/h (2 Bft) 0 min 10,0 km/h (2 Bft)
04.05.2010 05:10 17,0 C 7,5 C 0,0 UV-I 0,0 C 53 % 90 % 0 % 1019,8 hPa 0,0 l/m 7,6 km/h (2 Bft) 0 min 9,2 km/h (2 Bft)
04.05.2010 05:12 17,0 C 7,3 C 0,0 UV-I 0,0 C 53 % 90 % 0 % 1020,0 hPa 0,0 l/m 7,6 km/h (2 Bft) 0 min 11,2 km/h (2 Bft)
04.05.2010 05:14 17,0 C 7,4 C 0,0 UV-I 0,0 C 53 % 89 % 0 % 1020,0 hPa 0,0 l/m 8,0 km/h (2 Bft) 0 min 14,5 km/h (3 Bft)
04.05.2010 05:16 17,0 C 7,3 C 0,0 UV-I 0,0 C 53 % 89 % 0 % 1020,0 hPa 0,0 l/m 9,2 km/h (2 Bft) 0 min 12,8 km/h (3 Bft)
04.05.2010 05:18 17,0 C 7,3 C 0,0 UV-I 0,0 C 53 % 89 % 0 % 1020,0 hPa 0,0 l/m 10,0 km/h (2 Bft) 0 min 16,1 km/h (3 Bft)
04.05.2010 05:20 17,0 C 7,3 C 0,0 UV-I 0,0 C 53 % 89 % 0 % 1020,0 hPa 0,0 l/m 10,4 km/h (2 Bft) 0 min 12,0 km/h (2 Bft)
04.05.2010 05:22 17,0 C 7,3 C 0,0 UV-I 0,0 C 53 % 89 % 0 % 1020,0 hPa 0,0 l/m 10,4 km/h (2 Bft) 0 min 10,4 km/h (2 Bft)
04.05.2010 05:24 17,0 C 7,3 C 0,0 UV-I 0,0 C 53 % 89 % 0 % 1020,0 hPa 0,0 l/m 10,4 km/h (2 Bft) 0 min 9,6 km/h (2 Bft)
04.05.2010 05:26 17,0 C 7,3 C 0,0 UV-I 0,0 C 53 % 89 % 0 % 1020,0 hPa 0,0 l/m 10,8 km/h (2 Bft) 0 min 32,1 km/h (5 Bft)
04.05.2010 05:28 17,0 C 7,3 C 0,0 UV-I 0,0 C 53 % 89 % 0 % 1020,0 hPa 0,0 l/m 11,6 km/h (2 Bft) 0 min 14,9 km/h (3 Bft)
04.05.2010 05:30 17,0 C 7,3 C 0,0 UV-I 0,0 C 53 % 88 % 0 % 1020,0 hPa 0,0 l/m 12,8 km/h (3 Bft) 0 min 20,5 km/h (4 Bft)
04.05.2010 05:32 17,0 C 7,2 C 0,0 UV-I 0,0 C 53 % 88 % 0 % 1019,9 hPa 0,0 l/m 13,7 km/h (3 Bft) 0 min 22,5 km/h (4 Bft)
04.05.2010 05:34 17,0 C 7,2 C 0,0 UV-I 0,0 C 53 % 88 % 0 % 1019,9 hPa 0,0 l/m 14,1 km/h (3 Bft) 0 min 10,8 km/h (2 Bft)
04.05.2010 05:36 17,0 C 7,2 C 0,0 UV-I 0,0 C 53 % 88 % 0 % 1019,9 hPa 0,0 l/m 14,5 km/h (3 Bft) 0 min 19,3 km/h (3 Bft)
04.05.2010 05:38 17,0 C 7,2 C 0,0 UV-I 0,0 C 53 % 88 % 0 % 1019,9 hPa 0,0 l/m 14,1 km/h (3 Bft) 0 min 17,3 km/h (3 Bft)
04.05.2010 05:40 17,0 C 7,2 C 0,0 UV-I 0,0 C 53 % 88 % 0 % 1019,9 hPa 0,0 l/m 12,4 km/h (3 Bft) 0 min 12,0 km/h (2 Bft)
04.05.2010 05:42 17,0 C 7,3 C 0,0 UV-I 0,0 C 53 % 88 % 0 % 1019,9 hPa 0,0 l/m 11,6 km/h (2 Bft) 0 min 10,8 km/h (2 Bft)
04.05.2010 05:44 17,0 C 7,3 C 0,0 UV-I 0,0 C 53 % 88 % 0 % 1019,9 hPa 0,0 l/m 10,8 km/h (2 Bft) 0 min 15,3 km/h (3 Bft)
04.05.2010 05:46 17,0 C 7,3 C 0,0 UV-I 0,0 C 53 % 88 % 0 % 1019,9 hPa 0,0 l/m 10,4 km/h (2 Bft) 0 min 8,0 km/h (2 Bft)
04.05.2010 05:48 17,0 C 7,2 C 0,0 UV-I 0,0 C 53 % 88 % 0 % 1019,9 hPa 0,0 l/m 9,6 km/h (2 Bft) 0 min 14,5 km/h (3 Bft)
04.05.2010 05:50 17,0 C 7,2 C 0,0 UV-I 0,0 C 53 % 88 % 0 % 1019,9 hPa 0,0 l/m 10,0 km/h (2 Bft) 0 min 15,3 km/h (3 Bft)
04.05.2010 05:52 17,0 C 7,1 C 0,0 UV-I 0,0 C 53 % 88 % 0 % 1020,2 hPa 0,0 l/m 10,4 km/h (2 Bft) 0 min 17,7 km/h (3 Bft)
04.05.2010 05:56 17,0 C 7,1 C 0,0 UV-I 0,0 C 53 % 88 % 0 % 1020,2 hPa 0,0 l/m 12,4 km/h (3 Bft) 0 min 27,7 km/h (4 Bft)
04.05.2010 05:58 17,0 C 7,1 C 0,0 UV-I 0,0 C 53 % 88 % 0 % 1020,2 hPa 0,0 l/m 12,8 km/h (3 Bft) 0 min 6,0 km/h (2 Bft)
04.05.2010 06:00 17,0 C 7,1 C 0,0 UV-I 0,0 C 53 % 88 % 0 % 1020,2 hPa 0,0 l/m 12,4 km/h (3 Bft) 0 min 11,6 km/h (2 Bft)
04.05.2010 06:02 17,0 C 7,1 C 0,0 UV-I 0,0 C 53 % 88 % 0 % 1020,2 hPa 0,0 l/m 12,8 km/h (3 Bft) 0 min 12,4 km/h (3 Bft)
04.05.2010 06:04 17,0 C 7,1 C 0,0 UV-I 0,0 C 53 % 88 % 0 % 1020,2 hPa 0,0 l/m 12,8 km/h (3 Bft) 0 min 12,4 km/h (3 Bft)
04.05.2010 06:06 17,0 C 7,1 C 0,0 UV-I 0,0 C 53 % 88 % 0 % 1020,2 hPa 0,0 l/m 13,7 km/h (3 Bft) 0 min 23,3 km/h (4 Bft)
04.05.2010 06:08 17,0 C 7,1 C 0,0 UV-I 0,0 C 53 % 88 % 0 % 1020,2 hPa 0,0 l/m 13,7 km/h (3 Bft) 0 min 21,7 km/h (4 Bft)
04.05.2010 06:10 17,0 C 7,1 C 0,0 UV-I 0,0 C 53 % 88 % 0 % 1020,2 hPa 0,0 l/m 14,9 km/h (3 Bft) 0 min 22,5 km/h (4 Bft)
04.05.2010 06:12 17,0 C 7,1 C 0,0 UV-I 0,0 C 53 % 88 % 0 % 1020,6 hPa 0,0 l/m 15,7 km/h (3 Bft) 0 min 30,5 km/h (5 Bft)
04.05.2010 06:14 17,0 C 7,1 C 0,0 UV-I 0,0 C 53 % 88 % 0 % 1020,6 hPa 0,0 l/m 15,7 km/h (3 Bft) 0 min 21,7 km/h (4 Bft)
04.05.2010 06:16 17,0 C 7,1 C 0,0 UV-I 0,0 C 53 % 88 % 0 % 1020,6 hPa 0,0 l/m 14,9 km/h (3 Bft) 0 min 14,1 km/h (3 Bft)
04.05.2010 06:18 17,0 C 6,9 C 0,0 UV-I 0,0 C 53 % 88 % 0 % 1020,6 hPa 0,0 l/m 14,9 km/h (3 Bft) 0 min 16,9 km/h (3 Bft)
04.05.2010 06:20 17,0 C 6,9 C 0,0 UV-I 0,0 C 53 % 88 % 0 % 1020,6 hPa 0,0 l/m 15,3 km/h (3 Bft) 0 min 25,3 km/h (4 Bft)
04.05.2010 06:22 17,0 C 6,9 C 0,0 UV-I 0,0 C 53 % 88 % 0 % 1020,6 hPa 0,0 l/m 14,9 km/h (3 Bft) 0 min 19,3 km/h (3 Bft)
04.05.2010 06:24 16,9 C 6,9 C 0,0 UV-I 0,0 C 53 % 88 % 0 % 1020,6 hPa 0,0 l/m 14,5 km/h (3 Bft) 0 min 11,2 km/h (2 Bft)
04.05.2010 06:26 17,0 C 6,9 C 0,0 UV-I 0,0 C 53 % 88 % 0 % 1020,6 hPa 0,0 l/m 14,9 km/h (3 Bft) 0 min 16,1 km/h (3 Bft)
04.05.2010 06:28 17,0 C 6,9 C 0,0 UV-I 0,0 C 53 % 88 % 0 % 1020,6 hPa 0,0 l/m 14,1 km/h (3 Bft) 0 min 9,6 km/h (2 Bft)
04.05.2010 06:30 17,0 C 6,8 C 0,0 UV-I 0,0 C 53 % 88 % 0 % 1020,6 hPa 0,0 l/m 12,8 km/h (3 Bft) 0 min 14,9 km/h (3 Bft)
04.05.2010 06:32 16,9 C 6,9 C 0,0 UV-I 0,0 C 53 % 88 % 0 % 1020,4 hPa 0,0 l/m 12,8 km/h (3 Bft) 0 min 9,6 km/h (2 Bft)
04.05.2010 06:34 16,9 C 6,9 C 0,0 UV-I 0,0 C 53 % 88 % 0 % 1020,4 hPa 0,0 l/m 12,4 km/h (3 Bft) 0 min 12,4 km/h (3 Bft)
04.05.2010 06:36 17,0 C 6,8 C 0,0 UV-I 0,0 C 53 % 88 % 0 % 1020,4 hPa 0,0 l/m 12,8 km/h (3 Bft) 0 min 22,9 km/h (4 Bft)
04.05.2010 06:38 17,0 C 6,8 C 0,0 UV-I 0,0 C 53 % 88 % 0 % 1020,4 hPa 0,0 l/m 13,3 km/h (3 Bft) 0 min 19,7 km/h (3 Bft)
04.05.2010 06:40 16,9 C 6,8 C 0,0 UV-I 0,0 C 53 % 88 % 0 % 1020,4 hPa 0,0 l/m 14,1 km/h (3 Bft) 0 min 21,7 km/h (4 Bft)
04.05.2010 06:42 16,9 C 6,8 C 0,0 UV-I 0,0 C 53 % 88 % 0 % 1020,4 hPa 0,0 l/m 13,7 km/h (3 Bft) 0 min 16,5 km/h (3 Bft)
04.05.2010 06:44 16,9 C 6,8 C 0,0 UV-I 0,0 C 53 % 88 % 0 % 1020,4 hPa 0,0 l/m 12,8 km/h (3 Bft) 0 min 12,8 km/h (3 Bft)
04.05.2010 06:46 16,9 C 6,8 C 0,0 UV-I 0,0 C 53 % 88 % 0 % 1020,4 hPa 0,0 l/m 12,8 km/h (3 Bft) 0 min 18,5 km/h (3 Bft)
04.05.2010 06:48 16,9 C 6,8 C 0,0 UV-I 0,0 C 53 % 88 % 0 % 1020,4 hPa 0,0 l/m 11,6 km/h (2 Bft) 0 min 13,3 km/h (3 Bft)
04.05.2010 06:50 16,9 C 6,8 C 0,0 UV-I 0,0 C 53 % 88 % 0 % 1020,4 hPa 0,0 l/m 12,0 km/h (2 Bft) 0 min 19,3 km/h (3 Bft)
04.05.2010 06:52 16,9 C 6,8 C 0,0 UV-I 0,0 C 53 % 88 % 0 % 1020,8 hPa 0,0 l/m 12,0 km/h (2 Bft) 0 min 7,6 km/h (2 Bft)
04.05.2010 06:54 16,9 C 6,8 C 0,0 UV-I 0,0 C 53 % 88 % 0 % 1020,8 hPa 0,0 l/m 12,8 km/h (3 Bft) 0 min 16,1 km/h (3 Bft)
04.05.2010 06:56 16,9 C 6,8 C 0,0 UV-I 0,0 C 53 % 88 % 0 % 1020,8 hPa 0,0 l/m 13,7 km/h (3 Bft) 0 min 22,9 km/h (4 Bft)
04.05.2010 06:58 17,0 C 6,8 C 0,0 UV-I 0,0 C 53 % 88 % 0 % 1020,8 hPa 0,0 l/m 13,7 km/h (3 Bft) 0 min 19,7 km/h (3 Bft)
04.05.2010 07:00 16,9 C 6,8 C 0,1 UV-I 0,0 C 53 % 88 % 0 % 1020,8 hPa 0,0 l/m 12,4 km/h (3 Bft) 0 min 16,1 km/h (3 Bft)
04.05.2010 07:02 16,9 C 6,9 C 0,1 UV-I 0,0 C 53 % 88 % 0 % 1020,8 hPa 0,0 l/m 12,0 km/h (2 Bft) 0 min 11,2 km/h (2 Bft)
04.05.2010 07:04 16,9 C 6,8 C 0,1 UV-I 0,0 C 53 % 88 % 0 % 1020,8 hPa 0,0 l/m 10,8 km/h (2 Bft) 0 min 9,2 km/h (2 Bft)
04.05.2010 07:06 16,9 C 6,8 C 0,1 UV-I 0,0 C 53 % 88 % 0 % 1020,8 hPa 0,0 l/m 10,8 km/h (2 Bft) 0 min 9,2 km/h (2 Bft)
04.05.2010 07:08 16,9 C 6,9 C 0,1 UV-I 0,0 C 53 % 89 % 0 % 1020,8 hPa 0,0 l/m 9,2 km/h (2 Bft) 0 min 9,2 km/h (2 Bft)
04.05.2010 07:10 17,0 C 6,8 C 0,2 UV-I 0,0 C 53 % 88 % 0 % 1020,8 hPa 0,0 l/m 10,0 km/h (2 Bft) 0 min 19,7 km/h (3 Bft)
04.05.2010 07:12 16,9 C 6,8 C 0,2 UV-I 0,0 C 53 % 89 % 0 % 1020,9 hPa 0,0 l/m 10,0 km/h (2 Bft) 0 min 5,6 km/h (1 Bft)
04.05.2010 07:14 16,9 C 6,9 C 0,2 UV-I 0,0 C 53 % 89 % 0 % 1020,9 hPa 0,0 l/m 10,4 km/h (2 Bft) 0 min 22,1 km/h (4 Bft)
04.05.2010 07:16 16,9 C 6,8 C 0,1 UV-I 0,0 C 53 % 89 % 0 % 1020,9 hPa 0,0 l/m 11,2 km/h (2 Bft) 0 min 21,7 km/h (4 Bft)
04.05.2010 07:18 16,9 C 6,8 C 0,1 UV-I 0,0 C 53 % 89 % 0 % 1020,9 hPa 0,0 l/m 12,4 km/h (3 Bft) 0 min 34,5 km/h (5 Bft)
04.05.2010 07:20 16,9 C 6,8 C 0,3 UV-I 0,0 C 53 % 89 % 0 % 1020,9 hPa 0,0 l/m 13,3 km/h (3 Bft) 0 min 10,0 km/h (2 Bft)
04.05.2010 07:22 16,9 C 6,9 C 0,3 UV-I 0,0 C 53 % 89 % 0 % 1020,9 hPa 0,0 l/m 12,0 km/h (2 Bft) 0 min 15,3 km/h (3 Bft)
04.05.2010 07:24 16,9 C 6,9 C 0,3 UV-I 0,0 C 53 % 89 % 0 % 1020,9 hPa 0,0 l/m 13,3 km/h (3 Bft) 0 min 21,3 km/h (4 Bft)
04.05.2010 07:26 16,9 C 6,9 C 0,5 UV-I 0,0 C 53 % 89 % 0 % 1020,9 hPa 0,0 l/m 12,8 km/h (3 Bft) 0 min 15,3 km/h (3 Bft)
04.05.2010 07:28 16,9 C 6,8 C 0,5 UV-I 0,0 C 53 % 89 % 0 % 1020,9 hPa 0,0 l/m 12,4 km/h (3 Bft) 0 min 18,5 km/h (3 Bft)
04.05.2010 07:30 16,9 C 6,8 C 0,5 UV-I 0,0 C 53 % 88 % 0 % 1020,9 hPa 0,0 l/m 10,8 km/h (2 Bft) 0 min 11,6 km/h (2 Bft)
04.05.2010 07:32 16,9 C 6,8 C 0,5 UV-I 0,0 C 53 % 89 % 0 % 1021,0 hPa 0,0 l/m 11,2 km/h (2 Bft) 0 min 8,8 km/h (2 Bft)
04.05.2010 07:34 16,9 C 6,8 C 0,5 UV-I 0,0 C 53 % 89 % 0 % 1021,0 hPa 0,0 l/m 10,8 km/h (2 Bft) 0 min 7,2 km/h (2 Bft)
04.05.2010 07:38 16,9 C 6,9 C 0,6 UV-I 0,0 C 53 % 88 % 0 % 1021,0 hPa 0,0 l/m 10,4 km/h (2 Bft) 0 min 16,5 km/h (3 Bft)
04.05.2010 07:40 16,9 C 6,8 C 0,6 UV-I 0,0 C 53 % 88 % 0 % 1021,0 hPa 0,0 l/m 10,8 km/h (2 Bft) 0 min 14,9 km/h (3 Bft)
04.05.2010 07:42 16,9 C 6,9 C 0,6 UV-I 0,0 C 53 % 88 % 0 % 1021,0 hPa 0,0 l/m 11,2 km/h (2 Bft) 0 min 17,7 km/h (3 Bft)
04.05.2010 07:44 17,0 C 6,8 C 0,6 UV-I 0,0 C 53 % 88 % 0 % 1021,0 hPa 0,0 l/m 13,7 km/h (3 Bft) 0 min 22,5 km/h (4 Bft)
04.05.2010 07:46 16,9 C 6,9 C 0,8 UV-I 0,0 C 53 % 88 % 0 % 1021,0 hPa 0,0 l/m 14,5 km/h (3 Bft) 0 min 16,5 km/h (3 Bft)
04.05.2010 07:48 16,9 C 6,9 C 0,8 UV-I 0,0 C 53 % 88 % 0 % 1021,0 hPa 0,0 l/m 16,1 km/h (3 Bft) 0 min 16,9 km/h (3 Bft)
04.05.2010 07:50 16,9 C 6,8 C 1,1 UV-I 0,0 C 53 % 88 % 0 % 1021,0 hPa 0,0 l/m 15,7 km/h (3 Bft) 0 min 14,5 km/h (3 Bft)
04.05.2010 07:52 16,9 C 6,9 C 1,1 UV-I 0,0 C 52 % 88 % 0 % 1021,2 hPa 0,0 l/m 15,7 km/h (3 Bft) 0 min 16,1 km/h (3 Bft)
04.05.2010 07:54 16,9 C 6,9 C 1,1 UV-I 0,0 C 53 % 88 % 0 % 1021,2 hPa 0,0 l/m 15,3 km/h (3 Bft) 0 min 10,4 km/h (2 Bft)
04.05.2010 07:56 16,9 C 6,9 C 1,1 UV-I 0,0 C 53 % 88 % 0 % 1021,2 hPa 0,0 l/m 13,3 km/h (3 Bft) 0 min 13,3 km/h (3 Bft)
04.05.2010 07:58 16,9 C 7,1 C 1,1 UV-I 0,0 C 53 % 88 % 0 % 1021,2 hPa 0,0 l/m 12,0 km/h (2 Bft) 0 min 12,0 km/h (2 Bft)
04.05.2010 08:02 17,0 C 7,0 C 1,6 UV-I 0,0 C 53 % 88 % 0 % 1021,2 hPa 0,0 l/m 12,8 km/h (3 Bft) 0 min 16,9 km/h (3 Bft)
04.05.2010 08:04 16,9 C 7,1 C 1,6 UV-I 0,2 C 53 % 88 % 6 % 1021,2 hPa 0,0 l/m 12,0 km/h (2 Bft) 0 min 30,5 km/h (5 Bft)
04.05.2010 08:06 16,9 C 7,1 C 1,5 UV-I 0,0 C 53 % 88 % 0 % 1021,2 hPa 0,0 l/m 14,1 km/h (3 Bft) 0 min 27,3 km/h (4 Bft)
04.05.2010 08:08 17,0 C 7,2 C 1,5 UV-I 0,0 C 52 % 88 % 0 % 1021,2 hPa 0,0 l/m 14,9 km/h (3 Bft) 0 min 30,5 km/h (5 Bft)
04.05.2010 08:10 17,0 C 7,1 C 1,6 UV-I 0,0 C 52 % 88 % 0 % 1021,2 hPa 0,0 l/m 15,7 km/h (3 Bft) 0 min 19,7 km/h (3 Bft)
04.05.2010 08:12 17,0 C 7,2 C 1,6 UV-I 0,0 C 53 % 88 % 0 % 1021,4 hPa 0,0 l/m 16,9 km/h (3 Bft) 0 min 26,1 km/h (4 Bft)
04.05.2010 08:14 17,0 C 7,2 C 1,6 UV-I 0,0 C 53 % 88 % 0 % 1021,4 hPa 0,0 l/m 17,7 km/h (3 Bft) 0 min 28,1 km/h (4 Bft)
04.05.2010 08:16 17,0 C 7,2 C 1,9 UV-I 0,0 C 52 % 87 % 0 % 1021,4 hPa 0,0 l/m 17,7 km/h (3 Bft) 0 min 21,7 km/h (4 Bft)
04.05.2010 08:18 17,0 C 7,1 C 1,9 UV-I 0,0 C 52 % 87 % 0 % 1021,4 hPa 0,0 l/m 17,7 km/h (3 Bft) 0 min 13,7 km/h (3 Bft)
04.05.2010 08:20 17,0 C 7,1 C 1,8 UV-I 0,0 C 52 % 87 % 0 % 1021,4 hPa 0,0 l/m 16,9 km/h (3 Bft) 0 min 31,3 km/h (5 Bft)
04.05.2010 08:22 17,0 C 7,1 C 1,8 UV-I 0,0 C 52 % 87 % 0 % 1021,4 hPa 0,0 l/m 16,1 km/h (3 Bft) 0 min 17,3 km/h (3 Bft)
04.05.2010 08:24 17,0 C 7,1 C 1,8 UV-I 0,0 C 52 % 87 % 0 % 1021,4 hPa 0,0 l/m 16,1 km/h (3 Bft) 0 min 20,9 km/h (4 Bft)
04.05.2010 08:26 17,0 C 7,1 C 1,0 UV-I 0,0 C 52 % 87 % 0 % 1021,4 hPa 0,0 l/m 15,7 km/h (3 Bft) 0 min 17,7 km/h (3 Bft)
04.05.2010 08:28 17,0 C 7,0 C 1,0 UV-I 0,0 C 52 % 87 % 0 % 1021,4 hPa 0,0 l/m 14,1 km/h (3 Bft) 0 min 10,4 km/h (2 Bft)
04.05.2010 08:30 17,0 C 7,0 C 1,3 UV-I 0,0 C 52 % 87 % 0 % 1021,4 hPa 0,0 l/m 14,1 km/h (3 Bft) 0 min 12,4 km/h (3 Bft)
04.05.2010 08:32 17,0 C 7,1 C 1,3 UV-I 0,0 C 52 % 87 % 0 % 1021,6 hPa 0,0 l/m 11,6 km/h (2 Bft) 0 min 33,7 km/h (5 Bft)
04.05.2010 08:34 17,0 C 7,1 C 1,3 UV-I 0,0 C 52 % 87 % 0 % 1021,6 hPa 0,0 l/m 12,0 km/h (2 Bft) 0 min 10,8 km/h (2 Bft)
04.05.2010 08:36 17,0 C 7,2 C 1,6 UV-I 0,0 C 52 % 87 % 0 % 1021,6 hPa 0,0 l/m 11,6 km/h (2 Bft) 0 min 18,9 km/h (3 Bft)
04.05.2010 08:38 17,0 C 7,2 C 1,6 UV-I 0,0 C 52 % 87 % 0 % 1021,6 hPa 0,0 l/m 12,8 km/h (3 Bft) 0 min 27,7 km/h (4 Bft)
04.05.2010 08:42 17,0 C 7,2 C 1,4 UV-I 0,0 C 52 % 86 % 0 % 1021,6 hPa 0,0 l/m 16,5 km/h (3 Bft) 0 min 24,5 km/h (4 Bft)
04.05.2010 08:44 17,0 C 7,2 C 1,4 UV-I 0,0 C 52 % 86 % 0 % 1021,6 hPa 0,0 l/m 17,3 km/h (3 Bft) 0 min 14,9 km/h (3 Bft)
04.05.2010 08:46 17,0 C 7,2 C 1,5 UV-I 0,0 C 52 % 86 % 0 % 1021,6 hPa 0,0 l/m 17,7 km/h (3 Bft) 0 min 28,1 km/h (4 Bft)
04.05.2010 08:48 17,0 C 7,2 C 1,5 UV-I 0,0 C 52 % 86 % 0 % 1021,6 hPa 0,0 l/m 18,1 km/h (3 Bft) 0 min 17,7 km/h (3 Bft)
04.05.2010 08:50 17,0 C 7,2 C 2,2 UV-I 0,0 C 52 % 86 % 0 % 1021,6 hPa 0,0 l/m 16,1 km/h (3 Bft) 0 min 16,9 km/h (3 Bft)
04.05.2010 08:52 17,0 C 7,3 C 2,2 UV-I 0,0 C 52 % 86 % 0 % 1021,5 hPa 0,0 l/m 14,9 km/h (3 Bft) 0 min 15,3 km/h (3 Bft)
04.05.2010 08:54 17,0 C 7,3 C 2,2 UV-I 0,0 C 52 % 86 % 0 % 1021,5 hPa 0,0 l/m 13,3 km/h (3 Bft) 0 min 12,0 km/h (2 Bft)
04.05.2010 08:56 17,0 C 7,4 C 2,3 UV-I 0,0 C 52 % 86 % 0 % 1021,5 hPa 0,0 l/m 13,7 km/h (3 Bft) 0 min 26,5 km/h (4 Bft)
04.05.2010 09:00 17,0 C 7,5 C 1,8 UV-I 0,0 C 52 % 86 % 0 % 1021,5 hPa 0,0 l/m 15,3 km/h (3 Bft) 0 min 26,1 km/h (4 Bft)
04.05.2010 09:04 17,0 C 7,3 C 1,8 UV-I 0,0 C 52 % 85 % 0 % 1021,5 hPa 0,0 l/m 16,1 km/h (3 Bft) 0 min 20,5 km/h (4 Bft)
04.05.2010 09:06 17,0 C 7,3 C 0,7 UV-I 0,0 C 52 % 85 % 0 % 1021,5 hPa 0,0 l/m 15,7 km/h (3 Bft) 0 min 8,0 km/h (2 Bft)
04.05.2010 09:08 17,0 C 7,3 C 0,7 UV-I 0,0 C 52 % 85 % 0 % 1021,5 hPa 0,0 l/m 15,3 km/h (3 Bft) 0 min 14,5 km/h (3 Bft)
04.05.2010 09:10 17,1 C 7,3 C 0,5 UV-I 0,0 C 52 % 85 % 0 % 1021,5 hPa 0,0 l/m 14,1 km/h (3 Bft) 0 min 7,6 km/h (2 Bft)
04.05.2010 09:12 17,1 C 7,2 C 0,5 UV-I 0,0 C 52 % 85 % 0 % 1021,9 hPa 0,0 l/m 12,8 km/h (3 Bft) 0 min 12,8 km/h (3 Bft)
04.05.2010 09:14 17,0 C 7,2 C 0,5 UV-I 0,0 C 52 % 85 % 0 % 1021,9 hPa 0,0 l/m 13,3 km/h (3 Bft) 0 min 18,9 km/h (3 Bft)
04.05.2010 09:16 17,0 C 7,3 C 0,5 UV-I 0,0 C 52 % 85 % 0 % 1021,9 hPa 0,0 l/m 12,0 km/h (2 Bft) 0 min 9,2 km/h (2 Bft)
04.05.2010 09:18 17,1 C 7,2 C 0,5 UV-I 0,0 C 52 % 85 % 0 % 1021,9 hPa 0,0 l/m 11,2 km/h (2 Bft) 0 min 6,4 km/h (2 Bft)
04.05.2010 09:20 17,0 C 7,2 C 0,2 UV-I 0,0 C 52 % 85 % 0 % 1021,9 hPa 0,0 l/m 11,6 km/h (2 Bft) 0 min 12,8 km/h (3 Bft)
04.05.2010 09:22 17,0 C 7,2 C 0,2 UV-I 0,0 C 52 % 85 % 0 % 1021,9 hPa 0,0 l/m 12,0 km/h (2 Bft) 0 min 13,3 km/h (3 Bft)
04.05.2010 09:24 17,0 C 7,2 C 0,2 UV-I 0,0 C 52 % 85 % 0 % 1021,9 hPa 0,0 l/m 12,0 km/h (2 Bft) 0 min 13,7 km/h (3 Bft)
04.05.2010 09:26 17,0 C 7,3 C 0,5 UV-I 0,0 C 52 % 85 % 0 % 1021,9 hPa 0,0 l/m 11,6 km/h (2 Bft) 0 min 9,2 km/h (2 Bft)
04.05.2010 09:28 17,0 C 7,2 C 0,5 UV-I 0,0 C 52 % 85 % 0 % 1021,9 hPa 0,0 l/m 12,4 km/h (3 Bft) 0 min 11,6 km/h (2 Bft)
04.05.2010 09:30 17,1 C 7,2 C 0,3 UV-I 0,0 C 52 % 85 % 0 % 1021,9 hPa 0,0 l/m 11,6 km/h (2 Bft) 0 min 8,8 km/h (2 Bft)
04.05.2010 09:32 17,0 C 7,2 C 0,3 UV-I 0,0 C 52 % 85 % 0 % 1022,0 hPa 0,0 l/m 10,8 km/h (2 Bft) 0 min 16,1 km/h (3 Bft)
04.05.2010 09:34 17,1 C 7,2 C 0,3 UV-I 0,0 C 52 % 86 % 0 % 1022,0 hPa 0,0 l/m 9,6 km/h (2 Bft) 0 min 11,2 km/h (2 Bft)
04.05.2010 09:36 17,0 C 7,2 C 0,3 UV-I 0,0 C 52 % 85 % 0 % 1022,0 hPa 0,0 l/m 10,8 km/h (2 Bft) 0 min 22,9 km/h (4 Bft)
04.05.2010 09:38 17,0 C 7,2 C 0,3 UV-I 0,0 C 52 % 85 % 0 % 1022,0 hPa 0,0 l/m 11,6 km/h (2 Bft) 0 min 16,5 km/h (3 Bft)
04.05.2010 09:40 17,0 C 7,2 C 0,7 UV-I 0,0 C 52 % 85 % 0 % 1022,0 hPa 0,0 l/m 12,0 km/h (2 Bft) 0 min 14,9 km/h (3 Bft)
04.05.2010 09:42 17,0 C 7,2 C 0,7 UV-I 0,0 C 52 % 85 % 0 % 1022,0 hPa 0,0 l/m 13,3 km/h (3 Bft) 0 min 15,3 km/h (3 Bft)
04.05.2010 09:44 17,0 C 7,2 C 0,7 UV-I 0,0 C 52 % 85 % 0 % 1022,0 hPa 0,0 l/m 14,5 km/h (3 Bft) 0 min 10,8 km/h (2 Bft)
04.05.2010 09:46 17,0 C 7,3 C 0,8 UV-I 0,0 C 52 % 85 % 0 % 1022,0 hPa 0,0 l/m 14,9 km/h (3 Bft) 0 min 20,9 km/h (4 Bft)
04.05.2010 09:48 17,0 C 7,2 C 0,8 UV-I 0,0 C 52 % 84 % 0 % 1022,0 hPa 0,0 l/m 14,5 km/h (3 Bft) 0 min 24,9 km/h (4 Bft)
04.05.2010 09:50 17,0 C 7,2 C 1,1 UV-I 0,0 C 52 % 84 % 0 % 1022,0 hPa 0,0 l/m 15,3 km/h (3 Bft) 0 min 23,7 km/h (4 Bft)
04.05.2010 09:52 17,0 C 7,3 C 1,1 UV-I 0,0 C 52 % 84 % 0 % 1022,1 hPa 0,0 l/m 16,1 km/h (3 Bft) 0 min 24,5 km/h (4 Bft)
04.05.2010 09:54 17,0 C 7,2 C 1,1 UV-I 0,0 C 52 % 84 % 0 % 1022,1 hPa 0,0 l/m 16,1 km/h (3 Bft) 0 min 14,9 km/h (3 Bft)
04.05.2010 09:56 17,0 C 7,3 C 1,3 UV-I 0,0 C 52 % 84 % 0 % 1022,1 hPa 0,0 l/m 16,5 km/h (3 Bft) 0 min 14,1 km/h (3 Bft)
04.05.2010 09:58 17,0 C 7,3 C 1,3 UV-I 0,0 C 52 % 84 % 0 % 1022,1 hPa 0,0 l/m 15,7 km/h (3 Bft) 0 min 12,8 km/h (3 Bft)
04.05.2010 10:00 17,0 C 7,2 C 1,3 UV-I 0,0 C 52 % 84 % 0 % 1022,1 hPa 0,0 l/m 15,3 km/h (3 Bft) 0 min 16,9 km/h (3 Bft)
04.05.2010 10:02 17,0 C 7,2 C 1,3 UV-I 0,0 C 52 % 84 % 0 % 1022,1 hPa 0,0 l/m 15,3 km/h (3 Bft) 0 min 24,9 km/h (4 Bft)
04.05.2010 10:04 17,0 C 7,2 C 1,3 UV-I 0,0 C 52 % 84 % 0 % 1022,1 hPa 0,0 l/m 14,9 km/h (3 Bft) 0 min 20,1 km/h (4 Bft)
04.05.2010 10:06 17,0 C 7,2 C 1,2 UV-I 0,0 C 52 % 84 % 0 % 1022,1 hPa 0,0 l/m 14,9 km/h (3 Bft) 0 min 14,5 km/h (3 Bft)
04.05.2010 10:08 17,0 C 7,2 C 1,2 UV-I 0,0 C 52 % 83 % 0 % 1022,1 hPa 0,0 l/m 15,7 km/h (3 Bft) 0 min 16,1 km/h (3 Bft)
04.05.2010 10:10 17,0 C 7,3 C 2,6 UV-I 0,0 C 52 % 84 % 0 % 1022,1 hPa 0,0 l/m 16,9 km/h (3 Bft) 0 min 22,5 km/h (4 Bft)
04.05.2010 10:12 17,0 C 7,5 C 2,6 UV-I 0,0 C 52 % 83 % 0 % 1022,1 hPa 0,0 l/m 16,9 km/h (3 Bft) 0 min 18,1 km/h (3 Bft)
04.05.2010 10:14 17,0 C 7,5 C 2,6 UV-I 0,0 C 51 % 83 % 0 % 1022,1 hPa 0,0 l/m 17,3 km/h (3 Bft) 0 min 28,1 km/h (4 Bft)
04.05.2010 10:16 17,0 C 7,5 C 3,0 UV-I 0,0 C 52 % 83 % 0 % 1022,1 hPa 0,0 l/m 16,9 km/h (3 Bft) 0 min 21,3 km/h (4 Bft)
04.05.2010 10:18 17,1 C 7,6 C 3,0 UV-I 0,1 C 51 % 83 % 3 % 1022,1 hPa 0,0 l/m 17,3 km/h (3 Bft) 0 min 27,7 km/h (4 Bft)
04.05.2010 10:24 17,1 C 7,7 C 4,4 UV-I 0,7 C 51 % 83 % 20 % 1022,1 hPa 0,0 l/m 16,5 km/h (3 Bft) 0 min 28,9 km/h (5 Bft)
04.05.2010 10:26 17,1 C 7,7 C 2,2 UV-I 0,9 C 51 % 83 % 26 % 1022,1 hPa 0,0 l/m 15,3 km/h (3 Bft) 0 min 11,2 km/h (2 Bft)
04.05.2010 10:28 17,1 C 7,7 C 2,2 UV-I 0,8 C 51 % 83 % 23 % 1022,1 hPa 0,0 l/m 14,5 km/h (3 Bft) 0 min 14,1 km/h (3 Bft)
04.05.2010 10:30 17,1 C 7,7 C 1,3 UV-I 0,6 C 51 % 82 % 17 % 1022,1 hPa 0,0 l/m 14,1 km/h (3 Bft) 0 min 15,7 km/h (3 Bft)
04.05.2010 10:32 17,1 C 7,7 C 1,3 UV-I 0,4 C 51 % 82 % 11 % 1022,4 hPa 0,0 l/m 14,1 km/h (3 Bft) 0 min 26,5 km/h (4 Bft)
04.05.2010 10:36 17,1 C 7,6 C 1,4 UV-I 0,1 C 51 % 82 % 3 % 1022,4 hPa 0,0 l/m 14,1 km/h (3 Bft) 0 min 20,5 km/h (4 Bft)
04.05.2010 10:38 17,1 C 7,7 C 1,4 UV-I 0,0 C 51 % 82 % 0 % 1022,4 hPa 0,0 l/m 14,5 km/h (3 Bft) 0 min 18,1 km/h (3 Bft)
04.05.2010 10:40 17,1 C 7,6 C 2,2 UV-I 0,1 C 51 % 82 % 3 % 1022,4 hPa 0,0 l/m 14,5 km/h (3 Bft) 0 min 27,7 km/h (4 Bft)
04.05.2010 10:42 17,1 C 7,6 C 2,2 UV-I 0,0 C 51 % 82 % 0 % 1022,4 hPa 0,0 l/m 14,9 km/h (3 Bft) 0 min 16,1 km/h (3 Bft)
04.05.2010 10:44 17,1 C 7,7 C 2,2 UV-I 0,0 C 51 % 82 % 0 % 1022,4 hPa 0,0 l/m 14,9 km/h (3 Bft) 0 min 20,5 km/h (4 Bft)
04.05.2010 10:46 17,1 C 7,7 C 2,4 UV-I 0,1 C 51 % 81 % 3 % 1022,4 hPa 0,0 l/m 14,5 km/h (3 Bft) 0 min 16,9 km/h (3 Bft)
04.05.2010 10:48 17,1 C 7,8 C 2,4 UV-I 0,1 C 51 % 81 % 3 % 1022,4 hPa 0,0 l/m 14,9 km/h (3 Bft) 0 min 16,1 km/h (3 Bft)
04.05.2010 10:52 17,2 C 7,9 C 2,2 UV-I 0,1 C 51 % 81 % 3 % 1022,5 hPa 0,0 l/m 13,7 km/h (3 Bft) 0 min 18,5 km/h (3 Bft)
04.05.2010 10:54 17,1 C 7,8 C 2,2 UV-I 0,5 C 51 % 81 % 14 % 1022,5 hPa 0,0 l/m 12,0 km/h (2 Bft) 0 min 11,6 km/h (2 Bft)
04.05.2010 10:56 17,2 C 7,9 C 2,6 UV-I 0,8 C 51 % 81 % 23 % 1022,5 hPa 0,0 l/m 10,8 km/h (2 Bft) 0 min 9,6 km/h (2 Bft)
04.05.2010 10:58 17,1 C 8,0 C 2,6 UV-I 0,9 C 51 % 81 % 26 % 1022,5 hPa 0,0 l/m 10,4 km/h (2 Bft) 0 min 12,4 km/h (3 Bft)
04.05.2010 11:00 17,2 C 8,0 C 2,7 UV-I 0,9 C 51 % 81 % 26 % 1022,5 hPa 0,0 l/m 10,8 km/h (2 Bft) 0 min 17,3 km/h (3 Bft)
04.05.2010 11:04 17,2 C 8,0 C 2,7 UV-I 1,1 C 51 % 80 % 31 % 1022,5 hPa 0,0 l/m 10,8 km/h (2 Bft) 0 min 13,7 km/h (3 Bft)
04.05.2010 11:06 17,2 C 8,1 C 3,3 UV-I 1,1 C 51 % 80 % 31 % 1022,5 hPa 0,0 l/m 11,6 km/h (2 Bft) 0 min 19,7 km/h (3 Bft)
04.05.2010 11:08 17,2 C 8,3 C 3,3 UV-I 0,9 C 51 % 79 % 26 % 1022,5 hPa 0,0 l/m 12,4 km/h (3 Bft) 0 min 17,3 km/h (3 Bft)
04.05.2010 11:10 17,2 C 8,2 C 3,7 UV-I 1,0 C 51 % 79 % 29 % 1022,5 hPa 0,0 l/m 13,7 km/h (3 Bft) 0 min 23,7 km/h (4 Bft)
04.05.2010 11:12 17,2 C 8,2 C 3,7 UV-I 1,3 C 51 % 79 % 37 % 1022,5 hPa 0,0 l/m 12,0 km/h (2 Bft) 0 min 9,2 km/h (2 Bft)
04.05.2010 11:14 17,2 C 8,3 C 3,7 UV-I 1,3 C 51 % 79 % 37 % 1022,5 hPa 0,0 l/m 12,8 km/h (3 Bft) 0 min 15,7 km/h (3 Bft)
04.05.2010 11:18 17,2 C 8,4 C 4,9 UV-I 1,5 C 51 % 78 % 43 % 1022,5 hPa 0,0 l/m 13,3 km/h (3 Bft) 0 min 30,1 km/h (5 Bft)
04.05.2010 11:20 17,2 C 8,5 C 4,1 UV-I 1,7 C 51 % 78 % 49 % 1022,5 hPa 0,0 l/m 12,8 km/h (3 Bft) 0 min 6,8 km/h (2 Bft)
04.05.2010 11:22 17,2 C 8,5 C 4,1 UV-I 1,7 C 51 % 78 % 49 % 1022,5 hPa 0,0 l/m 12,0 km/h (2 Bft) 0 min 34,9 km/h (5 Bft)
04.05.2010 11:24 17,2 C 8,5 C 4,1 UV-I 1,6 C 51 % 76 % 46 % 1022,5 hPa 0,0 l/m 13,7 km/h (3 Bft) 0 min 12,8 km/h (3 Bft)
04.05.2010 11:26 17,2 C 8,5 C 3,5 UV-I 1,4 C 51 % 76 % 40 % 1022,5 hPa 0,0 l/m 13,7 km/h (3 Bft) 0 min 18,5 km/h (3 Bft)
04.05.2010 11:28 17,3 C 8,5 C 3,5 UV-I 1,4 C 51 % 77 % 40 % 1022,5 hPa 0,0 l/m 12,8 km/h (3 Bft) 0 min 8,0 km/h (2 Bft)
04.05.2010 11:30 17,3 C 8,7 C 3,1 UV-I 1,3 C 51 % 77 % 37 % 1022,5 hPa 0,0 l/m 12,4 km/h (3 Bft) 0 min 38,1 km/h (5 Bft)
04.05.2010 11:32 17,3 C 8,7 C 3,1 UV-I 1,1 C 51 % 75 % 31 % 1022,5 hPa 0,0 l/m 13,7 km/h (3 Bft) 0 min 14,9 km/h (3 Bft)
04.05.2010 11:34 17,3 C 8,7 C 3,1 UV-I 1,3 C 50 % 75 % 37 % 1022,5 hPa 0,0 l/m 12,4 km/h (3 Bft) 0 min 7,2 km/h (2 Bft)
04.05.2010 11:36 17,2 C 8,9 C 4,7 UV-I 1,4 C 50 % 76 % 40 % 1022,5 hPa 0,0 l/m 11,2 km/h (2 Bft) 0 min 24,5 km/h (4 Bft)
04.05.2010 11:38 17,2 C 8,8 C 4,7 UV-I 1,8 C 50 % 75 % 51 % 1022,5 hPa 0,0 l/m 11,2 km/h (2 Bft) 0 min 12,8 km/h (3 Bft)
04.05.2010 11:40 17,2 C 9,0 C 5,1 UV-I 1,8 C 50 % 75 % 51 % 1022,5 hPa 0,0 l/m 11,6 km/h (2 Bft) 0 min 10,8 km/h (2 Bft)
04.05.2010 11:42 17,2 C 9,0 C 5,1 UV-I 2,1 C 50 % 74 % 60 % 1022,5 hPa 0,0 l/m 10,8 km/h (2 Bft) 0 min 12,4 km/h (3 Bft)
04.05.2010 11:44 17,4 C 9,1 C 5,1 UV-I 2,2 C 50 % 74 % 63 % 1022,5 hPa 0,0 l/m 9,6 km/h (2 Bft) 0 min 10,8 km/h (2 Bft)
04.05.2010 11:48 17,4 C 9,1 C 4,1 UV-I 2,2 C 50 % 73 % 63 % 1022,5 hPa 0,0 l/m 9,6 km/h (2 Bft) 0 min 11,6 km/h (2 Bft)
04.05.2010 11:50 17,4 C 9,1 C 2,8 UV-I 2,1 C 50 % 73 % 60 % 1022,5 hPa 0,0 l/m 9,6 km/h (2 Bft) 0 min 18,5 km/h (3 Bft)
04.05.2010 11:52 17,4 C 9,1 C 2,8 UV-I 2,0 C 50 % 73 % 57 % 1022,7 hPa 0,0 l/m 10,0 km/h (2 Bft) 0 min 14,9 km/h (3 Bft)
04.05.2010 11:54 17,4 C 9,1 C 2,8 UV-I 2,0 C 50 % 73 % 57 % 1022,7 hPa 0,0 l/m 10,4 km/h (2 Bft) 0 min 22,1 km/h (4 Bft)
04.05.2010 11:56 17,4 C 9,1 C 2,8 UV-I 1,6 C 50 % 74 % 46 % 1022,7 hPa 0,0 l/m 11,6 km/h (2 Bft) 0 min 17,7 km/h (3 Bft)
04.05.2010 11:58 17,4 C 9,1 C 2,8 UV-I 1,6 C 50 % 74 % 46 % 1022,7 hPa 0,0 l/m 12,0 km/h (2 Bft) 0 min 18,5 km/h (3 Bft)
04.05.2010 12:00 17,4 C 9,1 C 3,5 UV-I 1,5 C 50 % 74 % 43 % 1022,7 hPa 0,0 l/m 13,3 km/h (3 Bft) 0 min 12,8 km/h (3 Bft)
04.05.2010 12:02 17,4 C 9,1 C 3,5 UV-I 1,3 C 50 % 74 % 37 % 1022,7 hPa 0,0 l/m 14,1 km/h (3 Bft) 0 min 19,3 km/h (3 Bft)
04.05.2010 12:04 17,4 C 9,1 C 3,5 UV-I 1,3 C 50 % 74 % 37 % 1022,7 hPa 0,0 l/m 14,1 km/h (3 Bft) 0 min 19,3 km/h (3 Bft)
04.05.2010 12:06 17,4 C 9,2 C 5,4 UV-I 1,7 C 50 % 72 % 49 % 1022,7 hPa 0,0 l/m 15,3 km/h (3 Bft) 0 min 15,3 km/h (3 Bft)
04.05.2010 12:08 17,5 C 9,2 C 5,4 UV-I 1,8 C 50 % 72 % 51 % 1022,7 hPa 0,0 l/m 15,7 km/h (3 Bft) 0 min 15,3 km/h (3 Bft)
04.05.2010 12:10 17,4 C 9,3 C 5,2 UV-I 1,8 C 50 % 72 % 51 % 1022,7 hPa 0,0 l/m 15,7 km/h (3 Bft) 0 min 26,5 km/h (4 Bft)
04.05.2010 12:14 17,5 C 9,5 C 5,2 UV-I 1,7 C 50 % 71 % 49 % 1022,2 hPa 0,0 l/m 16,5 km/h (3 Bft) 0 min 22,5 km/h (4 Bft)
04.05.2010 12:16 17,5 C 9,5 C 5,5 UV-I 1,8 C 50 % 72 % 51 % 1022,2 hPa 0,0 l/m 16,1 km/h (3 Bft) 0 min 14,5 km/h (3 Bft)
04.05.2010 12:18 17,5 C 9,5 C 5,5 UV-I 1,9 C 50 % 71 % 54 % 1022,2 hPa 0,0 l/m 17,3 km/h (3 Bft) 0 min 21,7 km/h (4 Bft)
04.05.2010 12:20 17,5 C 9,7 C 9,3 UV-I 2,1 C 50 % 71 % 60 % 1022,2 hPa 0,0 l/m 18,1 km/h (3 Bft) 0 min 39,8 km/h (6 Bft)
04.05.2010 12:22 17,5 C 9,7 C 9,3 UV-I 2,8 C 50 % 70 % 80 % 1022,2 hPa 0,0 l/m 18,5 km/h (3 Bft) 0 min 25,3 km/h (4 Bft)
04.05.2010 12:24 17,5 C 9,8 C 9,3 UV-I 3,5 C 50 % 70 % 100 % 1022,2 hPa 0,0 l/m 19,3 km/h (3 Bft) 2 min 21,3 km/h (4 Bft)
04.05.2010 12:26 17,5 C 10,0 C 9,7 UV-I 3,4 C 49 % 69 % 97 % 1022,2 hPa 0,0 l/m 19,3 km/h (3 Bft) 2 min 24,9 km/h (4 Bft)
04.05.2010 12:28 17,5 C 10,0 C 9,7 UV-I 3,6 C 50 % 69 % 100 % 1022,2 hPa 0,0 l/m 18,9 km/h (3 Bft) 2 min 22,9 km/h (4 Bft)
04.05.2010 12:30 17,6 C 10,1 C 8,0 UV-I 3,8 C 49 % 69 % 100 % 1022,2 hPa 0,0 l/m 18,5 km/h (3 Bft) 2 min 28,5 km/h (4 Bft)
04.05.2010 12:32 17,6 C 10,1 C 8,0 UV-I 3,6 C 49 % 69 % 100 % 1022,6 hPa 0,0 l/m 17,3 km/h (3 Bft) 2 min 22,9 km/h (4 Bft)
04.05.2010 12:34 17,6 C 10,0 C 8,0 UV-I 3,6 C 49 % 69 % 100 % 1022,6 hPa 0,0 l/m 15,7 km/h (3 Bft) 2 min 14,1 km/h (3 Bft)
04.05.2010 12:36 17,6 C 10,1 C 4,0 UV-I 3,1 C 49 % 67 % 89 % 1022,6 hPa 0,0 l/m 15,7 km/h (3 Bft) 2 min 41,4 km/h (6 Bft)
04.05.2010 12:38 17,6 C 9,9 C 4,0 UV-I 2,6 C 49 % 67 % 74 % 1022,6 hPa 0,0 l/m 15,7 km/h (3 Bft) 0 min 18,5 km/h (3 Bft)
04.05.2010 12:40 17,6 C 9,9 C 2,1 UV-I 2,1 C 49 % 69 % 60 % 1022,6 hPa 0,0 l/m 15,3 km/h (3 Bft) 0 min 41,4 km/h (6 Bft)
04.05.2010 12:42 17,6 C 9,7 C 2,1 UV-I 1,9 C 49 % 68 % 54 % 1022,6 hPa 0,0 l/m 15,3 km/h (3 Bft) 0 min 17,3 km/h (3 Bft)
04.05.2010 12:44 17,6 C 9,7 C 2,1 UV-I 1,4 C 49 % 68 % 40 % 1022,6 hPa 0,0 l/m 15,7 km/h (3 Bft) 0 min 17,3 km/h (3 Bft)
04.05.2010 12:46 17,6 C 9,7 C 3,0 UV-I 1,2 C 49 % 68 % 34 % 1022,6 hPa 0,0 l/m 16,9 km/h (3 Bft) 0 min 24,5 km/h (4 Bft)
04.05.2010 12:48 17,6 C 9,6 C 3,0 UV-I 1,1 C 49 % 68 % 31 % 1022,6 hPa 0,0 l/m 16,5 km/h (3 Bft) 0 min 25,3 km/h (4 Bft)
04.05.2010 12:50 17,6 C 9,7 C 3,0 UV-I 0,7 C 49 % 68 % 20 % 1022,6 hPa 0,0 l/m 16,5 km/h (3 Bft) 0 min 26,1 km/h (4 Bft)
04.05.2010 12:52 17,6 C 9,7 C 3,0 UV-I 0,6 C 49 % 68 % 17 % 1022,4 hPa 0,0 l/m 16,5 km/h (3 Bft) 0 min 15,3 km/h (3 Bft)
04.05.2010 12:54 17,6 C 9,6 C 3,0 UV-I 0,4 C 49 % 68 % 11 % 1022,4 hPa 0,0 l/m 17,7 km/h (3 Bft) 0 min 20,1 km/h (4 Bft)
04.05.2010 12:56 17,6 C 9,6 C 2,7 UV-I 0,3 C 49 % 69 % 9 % 1022,4 hPa 0,0 l/m 17,7 km/h (3 Bft) 0 min 24,1 km/h (4 Bft)
04.05.2010 12:58 17,6 C 9,5 C 2,7 UV-I 0,4 C 49 % 69 % 11 % 1022,4 hPa 0,0 l/m 16,5 km/h (3 Bft) 0 min 17,7 km/h (3 Bft)
04.05.2010 13:00 17,6 C 9,6 C 2,5 UV-I 0,4 C 49 % 68 % 11 % 1022,4 hPa 0,0 l/m 15,3 km/h (3 Bft) 0 min 12,0 km/h (2 Bft)
04.05.2010 13:06 17,6 C 9,6 C 4,2 UV-I 0,8 C 49 % 68 % 23 % 1022,4 hPa 0,0 l/m 14,1 km/h (3 Bft) 0 min 24,1 km/h (4 Bft)
04.05.2010 13:08 17,6 C 9,7 C 3,7 UV-I 0,9 C 48 % 68 % 26 % 1022,4 hPa 0,0 l/m 15,3 km/h (3 Bft) 0 min 13,3 km/h (3 Bft)
04.05.2010 13:12 17,7 C 9,7 C 3,7 UV-I 0,9 C 48 % 67 % 26 % 1022,4 hPa 0,0 l/m 14,9 km/h (3 Bft) 0 min 15,7 km/h (3 Bft)
04.05.2010 13:14 17,7 C 9,7 C 3,7 UV-I 0,9 C 48 % 67 % 26 % 1022,4 hPa 0,0 l/m 14,9 km/h (3 Bft) 0 min 15,7 km/h (3 Bft)
04.05.2010 13:16 17,6 C 9,8 C 3,0 UV-I 0,6 C 48 % 68 % 17 % 1022,4 hPa 0,0 l/m 15,3 km/h (3 Bft) 0 min 30,1 km/h (5 Bft)
04.05.2010 13:18 17,6 C 9,9 C 3,0 UV-I 0,4 C 48 % 67 % 11 % 1022,4 hPa 0,0 l/m 16,1 km/h (3 Bft) 0 min 13,7 km/h (3 Bft)
04.05.2010 13:20 17,6 C 9,8 C 3,2 UV-I 0,6 C 48 % 67 % 17 % 1022,4 hPa 0,0 l/m 15,3 km/h (3 Bft) 0 min 14,1 km/h (3 Bft)
04.05.2010 13:22 17,6 C 9,9 C 3,2 UV-I 0,6 C 48 % 67 % 17 % 1022,4 hPa 0,0 l/m 16,1 km/h (3 Bft) 0 min 26,5 km/h (4 Bft)
04.05.2010 13:24 17,6 C 9,8 C 3,2 UV-I 0,5 C 48 % 67 % 14 % 1022,4 hPa 0,0 l/m 16,5 km/h (3 Bft) 0 min 17,7 km/h (3 Bft)
04.05.2010 13:26 17,6 C 9,7 C 2,5 UV-I 0,5 C 48 % 67 % 14 % 1022,4 hPa 0,0 l/m 16,1 km/h (3 Bft) 0 min 24,1 km/h (4 Bft)
04.05.2010 13:28 17,6 C 9,7 C 2,5 UV-I 0,5 C 48 % 68 % 14 % 1022,4 hPa 0,0 l/m 15,7 km/h (3 Bft) 0 min 23,7 km/h (4 Bft)
04.05.2010 13:30 17,6 C 9,7 C 2,2 UV-I 0,6 C 48 % 67 % 17 % 1022,4 hPa 0,0 l/m 13,7 km/h (3 Bft) 0 min 14,1 km/h (3 Bft)
04.05.2010 13:32 17,6 C 9,8 C 2,2 UV-I 0,5 C 48 % 68 % 14 % 1022,4 hPa 0,0 l/m 13,7 km/h (3 Bft) 0 min 14,5 km/h (3 Bft)
04.05.2010 13:34 17,6 C 9,9 C 2,2 UV-I 0,4 C 48 % 68 % 11 % 1022,4 hPa 0,0 l/m 13,3 km/h (3 Bft) 0 min 21,7 km/h (4 Bft)
04.05.2010 13:36 17,6 C 9,8 C 3,7 UV-I 0,6 C 48 % 66 % 17 % 1022,4 hPa 0,0 l/m 14,1 km/h (3 Bft) 0 min 16,5 km/h (3 Bft)
04.05.2010 13:38 17,6 C 9,9 C 3,7 UV-I 0,6 C 48 % 65 % 17 % 1022,4 hPa 0,0 l/m 14,9 km/h (3 Bft) 0 min 18,9 km/h (3 Bft)
04.05.2010 13:40 17,6 C 10,1 C 4,5 UV-I 0,7 C 48 % 66 % 20 % 1022,4 hPa 0,0 l/m 15,7 km/h (3 Bft) 0 min 17,3 km/h (3 Bft)
04.05.2010 13:42 17,6 C 10,1 C 4,5 UV-I 0,7 C 48 % 65 % 20 % 1022,4 hPa 0,0 l/m 16,5 km/h (3 Bft) 0 min 17,7 km/h (3 Bft)
04.05.2010 13:44 17,7 C 10,0 C 4,5 UV-I 0,9 C 48 % 64 % 26 % 1022,4 hPa 0,0 l/m 16,9 km/h (3 Bft) 0 min 28,9 km/h (5 Bft)
04.05.2010 13:46 17,7 C 10,1 C 4,0 UV-I 1,1 C 48 % 64 % 31 % 1022,4 hPa 0,0 l/m 15,3 km/h (3 Bft) 0 min 16,5 km/h (3 Bft)
04.05.2010 13:48 17,7 C 10,2 C 4,0 UV-I 1,0 C 48 % 64 % 29 % 1022,4 hPa 0,0 l/m 15,3 km/h (3 Bft) 0 min 21,3 km/h (4 Bft)
04.05.2010 13:50 17,6 C 10,2 C 4,9 UV-I 1,2 C 48 % 62 % 34 % 1022,4 hPa 0,0 l/m 15,3 km/h (3 Bft) 0 min 15,3 km/h (3 Bft)
04.05.2010 13:52 17,7 C 10,2 C 4,9 UV-I 1,3 C 48 % 63 % 37 % 1022,1 hPa 0,0 l/m 16,1 km/h (3 Bft) 0 min 21,7 km/h (4 Bft)
04.05.2010 13:54 17,7 C 10,2 C 4,9 UV-I 1,4 C 48 % 64 % 40 % 1022,1 hPa 0,0 l/m 15,7 km/h (3 Bft) 0 min 10,0 km/h (2 Bft)
04.05.2010 13:56 17,7 C 10,2 C 3,8 UV-I 1,3 C 48 % 61 % 37 % 1022,1 hPa 0,0 l/m 16,1 km/h (3 Bft) 0 min 22,1 km/h (4 Bft)
04.05.2010 13:58 17,7 C 10,3 C 3,8 UV-I 1,0 C 48 % 62 % 29 % 1022,1 hPa 0,0 l/m 16,9 km/h (3 Bft) 0 min 20,5 km/h (4 Bft)
04.05.2010 14:00 17,7 C 10,1 C 3,7 UV-I 1,0 C 48 % 62 % 29 % 1022,1 hPa 0,0 l/m 17,3 km/h (3 Bft) 0 min 42,2 km/h (6 Bft)
04.05.2010 14:02 17,7 C 10,2 C 3,7 UV-I 0,7 C 48 % 62 % 20 % 1022,1 hPa 0,0 l/m 18,5 km/h (3 Bft) 0 min 41,8 km/h (6 Bft)
04.05.2010 14:04 17,7 C 10,3 C 3,7 UV-I 0,7 C 48 % 61 % 20 % 1022,1 hPa 0,0 l/m 18,5 km/h (3 Bft) 0 min 28,1 km/h (4 Bft)
04.05.2010 14:06 17,7 C 10,3 C 5,6 UV-I 0,8 C 47 % 63 % 23 % 1022,1 hPa 0,0 l/m 18,9 km/h (3 Bft) 0 min 13,3 km/h (3 Bft)
04.05.2010 14:08 17,7 C 10,4 C 5,6 UV-I 1,5 C 47 % 63 % 43 % 1022,1 hPa 0,0 l/m 17,3 km/h (3 Bft) 0 min 14,5 km/h (3 Bft)
04.05.2010 14:10 17,7 C 10,5 C 6,5 UV-I 1,7 C 47 % 62 % 49 % 1022,1 hPa 0,0 l/m 18,1 km/h (3 Bft) 0 min 29,7 km/h (5 Bft)
04.05.2010 14:12 17,7 C 10,6 C 6,5 UV-I 1,8 C 48 % 61 % 51 % 1022,2 hPa 0,0 l/m 18,1 km/h (3 Bft) 0 min 14,9 km/h (3 Bft)
04.05.2010 14:14 17,8 C 10,6 C 6,5 UV-I 2,5 C 47 % 62 % 71 % 1022,2 hPa 0,0 l/m 15,3 km/h (3 Bft) 0 min 14,1 km/h (3 Bft)
04.05.2010 14:16 17,8 C 11,1 C 8,3 UV-I 2,7 C 47 % 61 % 77 % 1022,2 hPa 0,0 l/m 14,5 km/h (3 Bft) 0 min 19,3 km/h (3 Bft)
04.05.2010 14:18 17,8 C 11,2 C 8,3 UV-I 3,4 C 47 % 61 % 97 % 1022,2 hPa 0,0 l/m 15,3 km/h (3 Bft) 2 min 29,7 km/h (5 Bft)
04.05.2010 14:20 17,9 C 11,3 C 8,2 UV-I 3,5 C 47 % 60 % 100 % 1022,2 hPa 0,0 l/m 16,1 km/h (3 Bft) 2 min 25,7 km/h (4 Bft)
04.05.2010 14:22 17,9 C 11,3 C 8,2 UV-I 3,7 C 47 % 58 % 100 % 1022,2 hPa 0,0 l/m 15,7 km/h (3 Bft) 2 min 14,9 km/h (3 Bft)
04.05.2010 14:24 18,0 C 11,2 C 8,2 UV-I 3,6 C 47 % 60 % 100 % 1022,2 hPa 0,0 l/m 16,9 km/h (3 Bft) 2 min 33,7 km/h (5 Bft)
04.05.2010 14:26 18,0 C 11,1 C 8,2 UV-I 3,3 C 47 % 61 % 94 % 1022,2 hPa 0,0 l/m 18,1 km/h (3 Bft) 2 min 22,5 km/h (4 Bft)
04.05.2010 14:28 18,0 C 11,1 C 8,2 UV-I 2,8 C 47 % 61 % 80 % 1022,2 hPa 0,0 l/m 18,9 km/h (3 Bft) 0 min 29,7 km/h (5 Bft)
04.05.2010 14:30 18,0 C 10,9 C 3,8 UV-I 2,4 C 47 % 60 % 69 % 1022,2 hPa 0,0 l/m 19,3 km/h (3 Bft) 0 min 27,7 km/h (4 Bft)
04.05.2010 14:32 18,0 C 10,9 C 3,8 UV-I 2,0 C 47 % 60 % 57 % 1023,1 hPa 0,0 l/m 18,5 km/h (3 Bft) 0 min 22,1 km/h (4 Bft)
04.05.2010 14:34 18,0 C 10,7 C 3,8 UV-I 1,7 C 47 % 61 % 49 % 1023,1 hPa 0,0 l/m 17,3 km/h (3 Bft) 0 min 20,9 km/h (4 Bft)
04.05.2010 14:36 18,0 C 10,7 C 3,9 UV-I 1,7 C 47 % 62 % 49 % 1023,1 hPa 0,0 l/m 15,7 km/h (3 Bft) 0 min 13,3 km/h (3 Bft)
04.05.2010 14:38 18,0 C 10,8 C 3,9 UV-I 1,6 C 46 % 60 % 46 % 1023,1 hPa 0,0 l/m 15,3 km/h (3 Bft) 0 min 17,7 km/h (3 Bft)
04.05.2010 14:42 18,0 C 10,9 C 5,2 UV-I 1,8 C 46 % 59 % 51 % 1023,1 hPa 0,0 l/m 13,7 km/h (3 Bft) 0 min 22,9 km/h (4 Bft)
04.05.2010 14:44 18,1 C 10,9 C 5,2 UV-I 2,3 C 46 % 59 % 66 % 1023,1 hPa 0,0 l/m 14,1 km/h (3 Bft) 0 min 10,4 km/h (2 Bft)
04.05.2010 14:46 18,1 C 11,0 C 6,0 UV-I 2,2 C 46 % 58 % 63 % 1023,1 hPa 0,0 l/m 14,9 km/h (3 Bft) 0 min 24,9 km/h (4 Bft)
04.05.2010 14:48 18,1 C 10,9 C 6,0 UV-I 2,1 C 46 % 59 % 60 % 1023,1 hPa 0,0 l/m 16,9 km/h (3 Bft) 0 min 36,9 km/h (5 Bft)
04.05.2010 14:50 18,2 C 10,9 C 4,9 UV-I 1,8 C 46 % 59 % 51 % 1023,1 hPa 0,0 l/m 17,3 km/h (3 Bft) 0 min 16,5 km/h (3 Bft)
04.05.2010 14:52 18,2 C 10,9 C 4,9 UV-I 1,7 C 46 % 60 % 49 % 1022,8 hPa 0,0 l/m 17,7 km/h (3 Bft) 0 min 23,3 km/h (4 Bft)
04.05.2010 14:54 18,2 C 10,9 C 4,9 UV-I 1,5 C 46 % 59 % 43 % 1022,8 hPa 0,0 l/m 17,3 km/h (3 Bft) 0 min 34,9 km/h (5 Bft)
04.05.2010 14:56 18,2 C 10,9 C 6,4 UV-I 1,3 C 46 % 59 % 37 % 1022,8 hPa 0,0 l/m 20,5 km/h (4 Bft) 0 min 28,1 km/h (4 Bft)
04.05.2010 14:58 18,2 C 11,1 C 6,4 UV-I 1,6 C 46 % 58 % 46 % 1022,8 hPa 0,0 l/m 20,1 km/h (4 Bft) 0 min 28,9 km/h (5 Bft)
04.05.2010 15:00 18,3 C 11,2 C 8,1 UV-I 1,9 C 46 % 58 % 54 % 1022,8 hPa 0,0 l/m 19,7 km/h (3 Bft) 0 min 47,0 km/h (6 Bft)
04.05.2010 15:02 18,3 C 11,2 C 8,1 UV-I 2,4 C 45 % 58 % 69 % 1022,8 hPa 0,0 l/m 19,7 km/h (3 Bft) 0 min 28,5 km/h (4 Bft)
04.05.2010 15:04 18,2 C 11,3 C 8,1 UV-I 2,3 C 45 % 58 % 66 % 1022,8 hPa 0,0 l/m 19,7 km/h (3 Bft) 0 min 17,7 km/h (3 Bft)
04.05.2010 15:06 18,4 C 11,5 C 7,1 UV-I 2,2 C 45 % 59 % 63 % 1022,8 hPa 0,0 l/m 17,3 km/h (3 Bft) 0 min 8,0 km/h (2 Bft)
04.05.2010 15:08 18,4 C 11,6 C 7,1 UV-I 3,0 C 45 % 60 % 86 % 1022,8 hPa 0,0 l/m 14,5 km/h (3 Bft) 2 min 6,8 km/h (2 Bft)
04.05.2010 15:10 18,4 C 11,7 C 7,7 UV-I 3,5 C 45 % 58 % 100 % 1022,8 hPa 0,0 l/m 13,3 km/h (3 Bft) 2 min 9,6 km/h (2 Bft)
04.05.2010 15:12 18,5 C 11,7 C 7,7 UV-I 3,6 C 45 % 56 % 100 % 1023,2 hPa 0,0 l/m 13,3 km/h (3 Bft) 2 min 25,7 km/h (4 Bft)
04.05.2010 15:14 18,5 C 11,6 C 7,7 UV-I 3,3 C 45 % 54 % 94 % 1023,2 hPa 0,0 l/m 12,8 km/h (3 Bft) 2 min 15,7 km/h (3 Bft)
04.05.2010 15:16 18,6 C 11,6 C 5,6 UV-I 3,1 C 45 % 54 % 89 % 1023,2 hPa 0,0 l/m 13,3 km/h (3 Bft) 2 min 27,7 km/h (4 Bft)
04.05.2010 15:18 18,6 C 11,5 C 5,6 UV-I 3,3 C 45 % 56 % 94 % 1023,2 hPa 0,0 l/m 13,3 km/h (3 Bft) 2 min 8,8 km/h (2 Bft)
04.05.2010 15:20 18,6 C 11,6 C 5,6 UV-I 3,3 C 44 % 56 % 94 % 1023,2 hPa 0,0 l/m 12,8 km/h (3 Bft) 2 min 9,6 km/h (2 Bft)
04.05.2010 15:22 18,7 C 11,7 C 5,6 UV-I 3,1 C 44 % 57 % 89 % 1023,2 hPa 0,0 l/m 11,2 km/h (2 Bft) 2 min 7,2 km/h (2 Bft)
04.05.2010 15:24 18,7 C 11,7 C 5,6 UV-I 2,9 C 44 % 53 % 83 % 1023,2 hPa 0,0 l/m 11,6 km/h (2 Bft) 2 min 27,3 km/h (4 Bft)
04.05.2010 15:26 18,7 C 11,7 C 6,8 UV-I 2,9 C 44 % 52 % 83 % 1023,2 hPa 0,0 l/m 13,7 km/h (3 Bft) 2 min 26,9 km/h (4 Bft)
04.05.2010 15:28 18,8 C 11,5 C 6,8 UV-I 2,8 C 44 % 53 % 80 % 1023,2 hPa 0,0 l/m 13,7 km/h (3 Bft) 0 min 32,1 km/h (5 Bft)
04.05.2010 15:30 18,8 C 11,5 C 6,8 UV-I 2,4 C 44 % 53 % 69 % 1023,2 hPa 0,0 l/m 17,3 km/h (3 Bft) 0 min 32,5 km/h (5 Bft)
04.05.2010 15:32 18,8 C 11,5 C 6,8 UV-I 2,3 C 44 % 54 % 66 % 1023,4 hPa 0,0 l/m 17,7 km/h (3 Bft) 0 min 10,0 km/h (2 Bft)
04.05.2010 15:34 18,8 C 11,6 C 6,8 UV-I 2,5 C 44 % 54 % 71 % 1023,4 hPa 0,0 l/m 17,7 km/h (3 Bft) 0 min 20,5 km/h (4 Bft)
04.05.2010 15:36 18,8 C 11,6 C 5,6 UV-I 2,7 C 44 % 54 % 77 % 1023,4 hPa 0,0 l/m 14,9 km/h (3 Bft) 0 min 11,2 km/h (2 Bft)
04.05.2010 15:38 18,9 C 11,6 C 5,6 UV-I 2,7 C 44 % 54 % 77 % 1023,4 hPa 0,0 l/m 14,9 km/h (3 Bft) 0 min 22,1 km/h (4 Bft)
04.05.2010 15:40 18,9 C 11,6 C 3,8 UV-I 2,4 C 43 % 54 % 69 % 1023,4 hPa 0,0 l/m 13,7 km/h (3 Bft) 0 min 23,7 km/h (4 Bft)
04.05.2010 15:42 18,9 C 11,6 C 3,8 UV-I 2,1 C 43 % 55 % 60 % 1023,4 hPa 0,0 l/m 12,4 km/h (3 Bft) 0 min 15,3 km/h (3 Bft)
04.05.2010 15:44 18,9 C 11,5 C 3,8 UV-I 2,0 C 43 % 56 % 57 % 1023,4 hPa 0,0 l/m 13,3 km/h (3 Bft) 0 min 18,5 km/h (3 Bft)
04.05.2010 15:46 18,9 C 11,5 C 4,0 UV-I 1,8 C 43 % 56 % 51 % 1023,4 hPa 0,0 l/m 13,3 km/h (3 Bft) 0 min 7,2 km/h (2 Bft)
04.05.2010 15:48 18,8 C 11,5 C 4,0 UV-I 1,7 C 43 % 56 % 49 % 1023,4 hPa 0,0 l/m 13,3 km/h (3 Bft) 0 min 17,3 km/h (3 Bft)
04.05.2010 15:52 18,9 C 11,7 C 5,6 UV-I 1,7 C 43 % 54 % 49 % 1022,8 hPa 0,0 l/m 14,1 km/h (3 Bft) 0 min 20,9 km/h (4 Bft)
04.05.2010 15:54 18,9 C 11,9 C 5,6 UV-I 1,6 C 43 % 54 % 46 % 1022,8 hPa 0,0 l/m 14,5 km/h (3 Bft) 0 min 14,5 km/h (3 Bft)
04.05.2010 15:56 19,0 C 12,1 C 8,2 UV-I 2,0 C 43 % 53 % 57 % 1022,8 hPa 0,0 l/m 14,9 km/h (3 Bft) 0 min 21,3 km/h (4 Bft)
04.05.2010 15:58 19,0 C 12,1 C 8,2 UV-I 2,6 C 43 % 51 % 74 % 1022,8 hPa 0,0 l/m 17,7 km/h (3 Bft) 0 min 21,3 km/h (4 Bft)
04.05.2010 16:00 19,2 C 12,3 C 10,1 UV-I 2,7 C 43 % 50 % 77 % 1022,8 hPa 0,0 l/m 19,3 km/h (3 Bft) 0 min 49,8 km/h (6 Bft)
04.05.2010 16:02 19,3 C 12,3 C 10,1 UV-I 3,1 C 42 % 50 % 89 % 1022,8 hPa 0,0 l/m 19,7 km/h (3 Bft) 2 min 27,7 km/h (4 Bft)
04.05.2010 16:04 19,4 C 12,4 C 10,1 UV-I 3,5 C 42 % 50 % 100 % 1022,8 hPa 0,0 l/m 19,7 km/h (3 Bft) 2 min 28,5 km/h (4 Bft)
04.05.2010 16:06 19,4 C 12,3 C 10,0 UV-I 3,6 C 42 % 48 % 100 % 1022,8 hPa 0,0 l/m 21,7 km/h (4 Bft) 2 min 26,9 km/h (4 Bft)
04.05.2010 16:08 19,5 C 12,3 C 10,0 UV-I 3,4 C 42 % 49 % 97 % 1022,8 hPa 0,0 l/m 20,9 km/h (4 Bft) 2 min 30,1 km/h (5 Bft)
04.05.2010 16:12 19,6 C 12,3 C 6,2 UV-I 3,2 C 41 % 51 % 91 % 1024,6 hPa 0,0 l/m 18,5 km/h (3 Bft) 2 min 22,1 km/h (4 Bft)
04.05.2010 16:14 19,6 C 12,3 C 6,2 UV-I 3,0 C 41 % 51 % 86 % 1024,6 hPa 0,0 l/m 18,1 km/h (3 Bft) 2 min 12,8 km/h (3 Bft)
04.05.2010 16:16 19,6 C 12,3 C 6,2 UV-I 2,9 C 41 % 50 % 83 % 1024,6 hPa 0,0 l/m 17,7 km/h (3 Bft) 2 min 24,9 km/h (4 Bft)
04.05.2010 16:18 19,7 C 12,1 C 6,2 UV-I 2,8 C 41 % 50 % 80 % 1024,6 hPa 0,0 l/m 17,7 km/h (3 Bft) 0 min 15,7 km/h (3 Bft)
04.05.2010 16:20 19,7 C 12,0 C 6,8 UV-I 2,2 C 41 % 51 % 63 % 1024,6 hPa 0,0 l/m 18,9 km/h (3 Bft) 0 min 23,7 km/h (4 Bft)
04.05.2010 16:22 19,7 C 12,1 C 6,8 UV-I 2,1 C 41 % 52 % 60 % 1024,6 hPa 0,0 l/m 18,5 km/h (3 Bft) 0 min 11,6 km/h (2 Bft)
04.05.2010 16:24 19,8 C 12,3 C 6,8 UV-I 2,3 C 41 % 51 % 66 % 1024,6 hPa 0,0 l/m 19,7 km/h (3 Bft) 0 min 20,1 km/h (4 Bft)
04.05.2010 16:26 19,9 C 12,4 C 10,8 UV-I 2,8 C 41 % 51 % 80 % 1024,6 hPa 0,0 l/m 20,1 km/h (4 Bft) 0 min 40,6 km/h (6 Bft)
04.05.2010 16:28 20,0 C 12,4 C 10,8 UV-I 3,2 C 41 % 50 % 91 % 1024,6 hPa 0,0 l/m 19,3 km/h (3 Bft) 2 min 19,7 km/h (3 Bft)
04.05.2010 16:32 20,1 C 12,7 C 11,1 UV-I 3,7 C 40 % 50 % 100 % 1023,9 hPa 0,0 l/m 17,3 km/h (3 Bft) 2 min 17,3 km/h (3 Bft)
04.05.2010 16:34 20,2 C 12,7 C 11,1 UV-I 3,7 C 40 % 49 % 100 % 1023,9 hPa 0,0 l/m 18,5 km/h (3 Bft) 2 min 24,9 km/h (4 Bft)
04.05.2010 16:36 20,2 C 12,4 C 4,8 UV-I 3,4 C 40 % 49 % 97 % 1023,9 hPa 0,0 l/m 19,3 km/h (3 Bft) 2 min 22,5 km/h (4 Bft)
04.05.2010 16:38 20,2 C 12,3 C 4,8 UV-I 2,9 C 40 % 50 % 83 % 1023,9 hPa 0,0 l/m 18,9 km/h (3 Bft) 2 min 24,5 km/h (4 Bft)
04.05.2010 16:40 20,2 C 12,3 C 6,4 UV-I 2,7 C 40 % 49 % 77 % 1023,9 hPa 0,0 l/m 19,7 km/h (3 Bft) 0 min 26,9 km/h (4 Bft)
04.05.2010 16:42 20,2 C 12,2 C 6,4 UV-I 2,4 C 40 % 49 % 69 % 1023,9 hPa 0,0 l/m 20,5 km/h (4 Bft) 0 min 25,3 km/h (4 Bft)
04.05.2010 16:44 20,2 C 12,3 C 6,4 UV-I 2,1 C 40 % 50 % 60 % 1023,9 hPa 0,0 l/m 20,5 km/h (4 Bft) 0 min 16,9 km/h (3 Bft)
04.05.2010 16:46 20,2 C 12,3 C 8,4 UV-I 2,1 C 40 % 51 % 60 % 1023,9 hPa 0,0 l/m 19,7 km/h (3 Bft) 0 min 22,5 km/h (4 Bft)
04.05.2010 16:48 20,3 C 12,5 C 8,4 UV-I 2,3 C 40 % 48 % 66 % 1023,9 hPa 0,0 l/m 19,3 km/h (3 Bft) 0 min 25,7 km/h (4 Bft)
04.05.2010 16:50 20,4 C 12,4 C 9,5 UV-I 2,5 C 40 % 47 % 71 % 1023,9 hPa 0,0 l/m 20,9 km/h (4 Bft) 0 min 32,9 km/h (5 Bft)
04.05.2010 16:52 20,4 C 12,4 C 9,5 UV-I 2,4 C 40 % 49 % 69 % 1023,0 hPa 0,0 l/m 20,9 km/h (4 Bft) 0 min 18,5 km/h (3 Bft)
04.05.2010 16:54 20,4 C 12,5 C 9,5 UV-I 2,6 C 40 % 49 % 74 % 1023,0 hPa 0,0 l/m 21,3 km/h (4 Bft) 0 min 35,3 km/h (5 Bft)
04.05.2010 16:56 20,5 C 12,7 C 11,3 UV-I 2,7 C 39 % 50 % 77 % 1023,0 hPa 0,0 l/m 20,5 km/h (4 Bft) 0 min 18,1 km/h (3 Bft)
04.05.2010 16:58 20,6 C 12,7 C 11,3 UV-I 3,0 C 39 % 48 % 86 % 1023,0 hPa 0,0 l/m 21,7 km/h (4 Bft) 2 min 34,1 km/h (5 Bft)
04.05.2010 17:00 20,6 C 12,6 C 11,1 UV-I 3,2 C 39 % 48 % 91 % 1023,0 hPa 0,0 l/m 22,1 km/h (4 Bft) 2 min 21,7 km/h (4 Bft)
04.05.2010 17:02 20,7 C 12,8 C 11,1 UV-I 3,2 C 39 % 47 % 91 % 1023,0 hPa 0,0 l/m 19,7 km/h (3 Bft) 2 min 25,7 km/h (4 Bft)
04.05.2010 17:04 20,8 C 12,9 C 11,1 UV-I 3,1 C 39 % 46 % 89 % 1023,0 hPa 0,0 l/m 19,7 km/h (3 Bft) 2 min 27,3 km/h (4 Bft)
04.05.2010 17:06 20,8 C 12,8 C 11,2 UV-I 3,3 C 39 % 47 % 94 % 1023,0 hPa 0,0 l/m 18,9 km/h (3 Bft) 2 min 20,9 km/h (4 Bft)
04.05.2010 17:08 20,9 C 12,9 C 11,2 UV-I 3,4 C 38 % 47 % 97 % 1023,0 hPa 0,0 l/m 19,7 km/h (3 Bft) 2 min 24,5 km/h (4 Bft)
04.05.2010 17:10 20,9 C 13,0 C 11,8 UV-I 3,6 C 38 % 47 % 100 % 1023,0 hPa 0,0 l/m 18,9 km/h (3 Bft) 2 min 17,3 km/h (3 Bft)
04.05.2010 17:12 21,0 C 13,0 C 11,8 UV-I 3,7 C 38 % 47 % 100 % 1025,0 hPa 0,0 l/m 19,7 km/h (3 Bft) 2 min 47,8 km/h (6 Bft)
04.05.2010 17:14 21,0 C 13,0 C 11,8 UV-I 3,8 C 38 % 47 % 100 % 1025,0 hPa 0,0 l/m 20,9 km/h (4 Bft) 2 min 11,2 km/h (2 Bft)
04.05.2010 17:16 21,1 C 13,2 C 10,0 UV-I 3,8 C 38 % 49 % 100 % 1025,0 hPa 0,0 l/m 19,3 km/h (3 Bft) 2 min 10,4 km/h (2 Bft)
04.05.2010 17:18 21,2 C 13,4 C 10,0 UV-I 3,7 C 38 % 47 % 100 % 1025,0 hPa 0,0 l/m 17,3 km/h (3 Bft) 2 min 12,8 km/h (3 Bft)
04.05.2010 17:22 21,2 C 13,5 C 11,1 UV-I 3,9 C 38 % 46 % 100 % 1025,0 hPa 0,0 l/m 13,7 km/h (3 Bft) 2 min 11,2 km/h (2 Bft)
04.05.2010 17:24 21,3 C 13,5 C 11,1 UV-I 4,2 C 38 % 47 % 100 % 1025,0 hPa 0,0 l/m 10,4 km/h (2 Bft) 2 min 22,1 km/h (4 Bft)
04.05.2010 17:26 21,2 C 13,5 C 11,0 UV-I 4,3 C 37 % 46 % 100 % 1025,0 hPa 0,0 l/m 11,6 km/h (2 Bft) 2 min 24,1 km/h (4 Bft)
04.05.2010 17:28 21,4 C 13,5 C 11,0 UV-I 4,3 C 37 % 46 % 100 % 1025,0 hPa 0,0 l/m 12,4 km/h (3 Bft) 2 min 23,7 km/h (4 Bft)
04.05.2010 17:30 21,4 C 13,3 C 9,0 UV-I 4,4 C 37 % 47 % 100 % 1025,0 hPa 0,0 l/m 13,3 km/h (3 Bft) 2 min 19,7 km/h (3 Bft)
04.05.2010 17:32 21,4 C 13,3 C 9,0 UV-I 4,4 C 37 % 47 % 100 % 1025,0 hPa 0,0 l/m 14,1 km/h (3 Bft) 2 min 18,1 km/h (3 Bft)
04.05.2010 17:34 21,5 C 13,2 C 9,0 UV-I 4,4 C 37 % 47 % 100 % 1025,0 hPa 0,0 l/m 16,5 km/h (3 Bft) 2 min 27,7 km/h (4 Bft)
04.05.2010 17:36 21,5 C 13,2 C 7,7 UV-I 4,2 C 37 % 46 % 100 % 1025,0 hPa 0,0 l/m 18,5 km/h (3 Bft) 2 min 24,5 km/h (4 Bft)
04.05.2010 17:38 21,5 C 13,0 C 7,7 UV-I 4,0 C 37 % 46 % 100 % 1025,0 hPa 0,0 l/m 19,7 km/h (3 Bft) 2 min 26,1 km/h (4 Bft)
04.05.2010 17:40 21,5 C 13,1 C 7,3 UV-I 3,8 C 37 % 46 % 100 % 1025,0 hPa 0,0 l/m 19,7 km/h (3 Bft) 2 min 30,9 km/h (5 Bft)
04.05.2010 17:42 21,5 C 12,9 C 7,3 UV-I 3,7 C 37 % 45 % 100 % 1025,0 hPa 0,0 l/m 19,7 km/h (3 Bft) 2 min 16,1 km/h (3 Bft)
04.05.2010 17:44 21,6 C 13,1 C 7,3 UV-I 3,4 C 37 % 46 % 97 % 1025,0 hPa 0,0 l/m 19,7 km/h (3 Bft) 2 min 22,1 km/h (4 Bft)
04.05.2010 17:46 21,6 C 12,9 C 4,1 UV-I 3,5 C 37 % 45 % 100 % 1025,0 hPa 0,0 l/m 18,9 km/h (3 Bft) 2 min 27,3 km/h (4 Bft)
04.05.2010 17:48 21,5 C 12,8 C 4,1 UV-I 3,2 C 37 % 47 % 91 % 1025,0 hPa 0,0 l/m 18,1 km/h (3 Bft) 2 min 27,3 km/h (4 Bft)
04.05.2010 17:50 21,5 C 12,9 C 4,1 UV-I 3,0 C 36 % 48 % 86 % 1025,0 hPa 0,0 l/m 17,7 km/h (3 Bft) 2 min 11,2 km/h (2 Bft)
04.05.2010 17:52 21,5 C 12,8 C 4,1 UV-I 2,9 C 37 % 47 % 83 % 1025,2 hPa 0,0 l/m 18,1 km/h (3 Bft) 2 min 42,2 km/h (6 Bft)
04.05.2010 17:54 21,5 C 12,9 C 4,1 UV-I 2,7 C 37 % 47 % 77 % 1025,2 hPa 0,0 l/m 19,7 km/h (3 Bft) 0 min 23,3 km/h (4 Bft)
04.05.2010 17:56 21,4 C 12,8 C 3,2 UV-I 2,8 C 37 % 46 % 80 % 1025,2 hPa 0,0 l/m 20,1 km/h (4 Bft) 0 min 22,5 km/h (4 Bft)
04.05.2010 17:58 21,4 C 12,7 C 3,2 UV-I 2,7 C 37 % 46 % 77 % 1025,2 hPa 0,0 l/m 20,5 km/h (4 Bft) 0 min 34,9 km/h (5 Bft)
04.05.2010 18:00 21,4 C 12,7 C 2,6 UV-I 2,9 C 37 % 47 % 83 % 1025,2 hPa 0,0 l/m 19,7 km/h (3 Bft) 2 min 28,5 km/h (4 Bft)
04.05.2010 18:04 21,2 C 12,9 C 2,6 UV-I 2,6 C 37 % 45 % 74 % 1025,2 hPa 0,0 l/m 21,7 km/h (4 Bft) 0 min 39,8 km/h (6 Bft)
04.05.2010 18:06 21,2 C 12,8 C 4,6 UV-I 2,6 C 37 % 46 % 74 % 1025,2 hPa 0,0 l/m 21,7 km/h (4 Bft) 0 min 35,3 km/h (5 Bft)
04.05.2010 18:08 21,2 C 12,7 C 4,6 UV-I 2,5 C 37 % 46 % 71 % 1025,2 hPa 0,0 l/m 22,1 km/h (4 Bft) 0 min 38,1 km/h (5 Bft)
04.05.2010 18:10 21,3 C 12,7 C 4,0 UV-I 2,3 C 37 % 47 % 66 % 1025,2 hPa 0,0 l/m 22,1 km/h (4 Bft) 0 min 33,3 km/h (5 Bft)
04.05.2010 18:12 21,2 C 12,7 C 4,0 UV-I 1,9 C 37 % 47 % 54 % 1023,3 hPa 0,0 l/m 23,7 km/h (4 Bft) 0 min 25,7 km/h (4 Bft)
04.05.2010 18:14 21,2 C 12,7 C 4,0 UV-I 1,5 C 37 % 47 % 43 % 1023,3 hPa 0,0 l/m 22,1 km/h (4 Bft) 0 min 22,9 km/h (4 Bft)
04.05.2010 18:16 21,2 C 12,7 C 3,0 UV-I 1,2 C 37 % 47 % 34 % 1023,3 hPa 0,0 l/m 21,3 km/h (4 Bft) 0 min 28,1 km/h (4 Bft)
04.05.2010 18:18 21,2 C 12,7 C 3,0 UV-I 1,1 C 37 % 46 % 31 % 1023,3 hPa 0,0 l/m 21,7 km/h (4 Bft) 0 min 22,5 km/h (4 Bft)
04.05.2010 18:20 21,1 C 12,5 C 2,7 UV-I 0,7 C 37 % 47 % 20 % 1023,3 hPa 0,0 l/m 22,1 km/h (4 Bft) 0 min 12,0 km/h (2 Bft)
04.05.2010 18:22 21,0 C 12,4 C 2,7 UV-I 0,8 C 37 % 48 % 23 % 1023,3 hPa 0,0 l/m 20,9 km/h (4 Bft) 0 min 30,1 km/h (5 Bft)
04.05.2010 18:24 21,0 C 12,4 C 2,7 UV-I 0,7 C 37 % 48 % 20 % 1023,3 hPa 0,0 l/m 20,5 km/h (4 Bft) 0 min 21,3 km/h (4 Bft)
04.05.2010 18:26 21,0 C 12,4 C 2,2 UV-I 0,7 C 37 % 48 % 20 % 1023,3 hPa 0,0 l/m 21,3 km/h (4 Bft) 0 min 24,9 km/h (4 Bft)
04.05.2010 18:28 20,9 C 12,4 C 2,2 UV-I 0,6 C 37 % 49 % 17 % 1023,3 hPa 0,0 l/m 20,1 km/h (4 Bft) 0 min 12,0 km/h (2 Bft)
04.05.2010 18:30 20,9 C 12,4 C 2,2 UV-I 0,4 C 37 % 48 % 11 % 1023,3 hPa 0,0 l/m 17,7 km/h (3 Bft) 0 min 14,5 km/h (3 Bft)
04.05.2010 18:32 20,8 C 12,5 C 2,2 UV-I 0,2 C 37 % 49 % 6 % 1022,6 hPa 0,0 l/m 16,9 km/h (3 Bft) 0 min 21,3 km/h (4 Bft)
04.05.2010 18:38 20,7 C 12,5 C 2,6 UV-I 0,0 C 37 % 46 % 0 % 1022,6 hPa 0,0 l/m 16,5 km/h (3 Bft) 0 min 48,2 km/h (6 Bft)
04.05.2010 18:40 20,6 C 12,4 C 1,3 UV-I 0,0 C 37 % 46 % 0 % 1022,6 hPa 0,0 l/m 17,3 km/h (3 Bft) 0 min 54,6 km/h (7 Bft)
04.05.2010 18:46 20,5 C 12,4 C 1,8 UV-I 0,0 C 37 % 47 % 0 % 1022,6 hPa 0,0 l/m 22,1 km/h (4 Bft) 0 min 27,3 km/h (4 Bft)
04.05.2010 18:48 20,4 C 12,3 C 1,8 UV-I 0,0 C 37 % 47 % 0 % 1022,6 hPa 0,0 l/m 23,3 km/h (4 Bft) 0 min 27,7 km/h (4 Bft)
04.05.2010 18:50 20,2 C 12,2 C 2,1 UV-I 0,0 C 37 % 47 % 0 % 1022,6 hPa 0,0 l/m 21,7 km/h (4 Bft) 0 min 21,7 km/h (4 Bft)
04.05.2010 18:54 20,2 C 12,1 C 2,1 UV-I 0,0 C 38 % 48 % 0 % 1022,0 hPa 0,0 l/m 20,5 km/h (4 Bft) 0 min 28,9 km/h (5 Bft)
04.05.2010 18:56 20,2 C 12,1 C 2,1 UV-I 0,0 C 38 % 47 % 0 % 1022,0 hPa 0,0 l/m 20,9 km/h (4 Bft) 0 min 37,7 km/h (5 Bft)
04.05.2010 18:58 20,1 C 12,0 C 2,1 UV-I 0,0 C 38 % 48 % 0 % 1022,0 hPa 0,0 l/m 20,5 km/h (4 Bft) 0 min 18,1 km/h (3 Bft)
04.05.2010 19:00 20,0 C 12,0 C 1,8 UV-I 0,0 C 38 % 48 % 0 % 1022,0 hPa 0,0 l/m 20,5 km/h (4 Bft) 0 min 28,1 km/h (4 Bft)
04.05.2010 19:02 20,0 C 12,0 C 1,8 UV-I 0,0 C 38 % 47 % 0 % 1022,0 hPa 0,0 l/m 20,9 km/h (4 Bft) 0 min 34,5 km/h (5 Bft)
04.05.2010 19:04 20,0 C 11,9 C 1,8 UV-I 0,0 C 38 % 48 % 0 % 1022,0 hPa 0,0 l/m 20,9 km/h (4 Bft) 0 min 12,0 km/h (2 Bft)
04.05.2010 19:06 19,9 C 12,0 C 1,8 UV-I 0,0 C 38 % 48 % 0 % 1022,0 hPa 0,0 l/m 20,1 km/h (4 Bft) 0 min 37,3 km/h (5 Bft)
04.05.2010 19:08 19,8 C 11,9 C 1,8 UV-I 0,0 C 38 % 49 % 0 % 1022,0 hPa 0,0 l/m 19,3 km/h (3 Bft) 0 min 33,7 km/h (5 Bft)
04.05.2010 19:12 19,7 C 12,0 C 1,6 UV-I 0,0 C 38 % 50 % 0 % 1021,8 hPa 0,0 l/m 17,7 km/h (3 Bft) 0 min 18,9 km/h (3 Bft)
04.05.2010 19:14 19,7 C 12,0 C 1,6 UV-I 0,0 C 38 % 49 % 0 % 1021,8 hPa 0,0 l/m 15,7 km/h (3 Bft) 0 min 21,7 km/h (4 Bft)
04.05.2010 19:16 19,6 C 11,9 C 1,5 UV-I 0,0 C 38 % 48 % 0 % 1021,8 hPa 0,0 l/m 15,3 km/h (3 Bft) 0 min 18,5 km/h (3 Bft)
04.05.2010 19:18 19,6 C 11,9 C 1,5 UV-I 0,0 C 38 % 48 % 0 % 1021,8 hPa 0,0 l/m 16,1 km/h (3 Bft) 0 min 28,1 km/h (4 Bft)
04.05.2010 19:20 19,6 C 11,9 C 1,4 UV-I 0,0 C 38 % 48 % 0 % 1021,8 hPa 0,0 l/m 16,9 km/h (3 Bft) 0 min 38,5 km/h (5 Bft)
04.05.2010 19:22 19,5 C 11,7 C 1,4 UV-I 0,0 C 38 % 49 % 0 % 1021,8 hPa 0,0 l/m 18,5 km/h (3 Bft) 0 min 25,3 km/h (4 Bft)
04.05.2010 19:26 19,4 C 11,7 C 1,3 UV-I 0,0 C 39 % 49 % 0 % 1021,8 hPa 0,0 l/m 21,7 km/h (4 Bft) 0 min 28,5 km/h (4 Bft)
04.05.2010 19:30 19,2 C 11,6 C 1,1 UV-I 0,0 C 39 % 49 % 0 % 1021,8 hPa 0,0 l/m 20,9 km/h (4 Bft) 0 min 30,9 km/h (5 Bft)
04.05.2010 19:32 19,3 C 11,7 C 1,1 UV-I 0,0 C 39 % 49 % 0 % 1021,5 hPa 0,0 l/m 19,3 km/h (3 Bft) 0 min 23,3 km/h (4 Bft)
04.05.2010 19:34 19,2 C 11,6 C 1,1 UV-I 0,0 C 39 % 48 % 0 % 1021,5 hPa 0,0 l/m 18,1 km/h (3 Bft) 0 min 10,0 km/h (2 Bft)
04.05.2010 19:36 19,2 C 11,5 C 1,2 UV-I 0,0 C 39 % 46 % 0 % 1021,5 hPa 0,0 l/m 17,3 km/h (3 Bft) 0 min 28,9 km/h (5 Bft)
04.05.2010 19:38 19,2 C 11,5 C 1,2 UV-I 0,0 C 39 % 46 % 0 % 1021,5 hPa 0,0 l/m 16,9 km/h (3 Bft) 0 min 15,3 km/h (3 Bft)
04.05.2010 19:40 19,1 C 11,4 C 0,8 UV-I 0,0 C 39 % 47 % 0 % 1021,5 hPa 0,0 l/m 16,1 km/h (3 Bft) 0 min 22,1 km/h (4 Bft)
04.05.2010 19:42 19,1 C 11,5 C 0,8 UV-I 0,0 C 39 % 48 % 0 % 1021,5 hPa 0,0 l/m 16,5 km/h (3 Bft) 0 min 19,3 km/h (3 Bft)
04.05.2010 19:44 19,1 C 11,4 C 0,8 UV-I 0,0 C 39 % 48 % 0 % 1021,5 hPa 0,0 l/m 14,9 km/h (3 Bft) 0 min 10,4 km/h (2 Bft)
04.05.2010 19:46 19,0 C 11,3 C 1,1 UV-I 0,0 C 39 % 49 % 0 % 1021,5 hPa 0,0 l/m 14,5 km/h (3 Bft) 0 min 17,3 km/h (3 Bft)
04.05.2010 19:48 19,0 C 11,3 C 1,1 UV-I 0,0 C 39 % 48 % 0 % 1021,5 hPa 0,0 l/m 12,8 km/h (3 Bft) 0 min 11,2 km/h (2 Bft)
04.05.2010 19:50 18,9 C 11,2 C 0,6 UV-I 0,0 C 39 % 48 % 0 % 1021,5 hPa 0,0 l/m 12,4 km/h (3 Bft) 0 min 14,9 km/h (3 Bft)
04.05.2010 19:52 18,9 C 11,3 C 0,6 UV-I 0,0 C 39 % 49 % 0 % 1021,6 hPa 0,0 l/m 12,4 km/h (3 Bft) 0 min 12,4 km/h (3 Bft)
04.05.2010 19:54 18,9 C 11,2 C 0,6 UV-I 0,0 C 39 % 49 % 0 % 1021,6 hPa 0,0 l/m 13,3 km/h (3 Bft) 0 min 30,5 km/h (5 Bft)
04.05.2010 19:56 18,8 C 11,2 C 0,6 UV-I 0,0 C 39 % 49 % 0 % 1021,6 hPa 0,0 l/m 14,9 km/h (3 Bft) 0 min 11,6 km/h (2 Bft)
04.05.2010 19:58 18,8 C 11,1 C 0,6 UV-I 0,0 C 39 % 49 % 0 % 1021,6 hPa 0,0 l/m 14,5 km/h (3 Bft) 0 min 15,7 km/h (3 Bft)
04.05.2010 20:00 18,8 C 11,0 C 0,5 UV-I 0,0 C 39 % 49 % 0 % 1021,6 hPa 0,0 l/m 16,5 km/h (3 Bft) 0 min 25,3 km/h (4 Bft)
04.05.2010 20:02 18,7 C 11,0 C 0,5 UV-I 0,0 C 39 % 50 % 0 % 1021,6 hPa 0,0 l/m 17,7 km/h (3 Bft) 0 min 17,3 km/h (3 Bft)
04.05.2010 20:04 18,7 C 11,0 C 0,5 UV-I 0,0 C 39 % 50 % 0 % 1021,6 hPa 0,0 l/m 16,9 km/h (3 Bft) 0 min 21,3 km/h (4 Bft)
04.05.2010 20:06 18,7 C 10,9 C 0,4 UV-I 0,0 C 40 % 50 % 0 % 1021,6 hPa 0,0 l/m 15,7 km/h (3 Bft) 0 min 24,5 km/h (4 Bft)
04.05.2010 20:08 18,6 C 10,9 C 0,4 UV-I 0,0 C 39 % 50 % 0 % 1021,6 hPa 0,0 l/m 17,3 km/h (3 Bft) 0 min 28,9 km/h (5 Bft)
04.05.2010 20:10 18,6 C 10,9 C 0,3 UV-I 0,0 C 40 % 51 % 0 % 1021,6 hPa 0,0 l/m 18,9 km/h (3 Bft) 0 min 22,9 km/h (4 Bft)
04.05.2010 20:12 18,6 C 10,8 C 0,3 UV-I 0,0 C 40 % 51 % 0 % 1021,6 hPa 0,0 l/m 17,3 km/h (3 Bft) 0 min 18,9 km/h (3 Bft)
04.05.2010 20:14 18,6 C 10,7 C 0,3 UV-I 0,0 C 40 % 51 % 0 % 1021,6 hPa 0,0 l/m 18,5 km/h (3 Bft) 0 min 32,9 km/h (5 Bft)
04.05.2010 20:16 18,5 C 10,7 C 0,2 UV-I 0,0 C 40 % 52 % 0 % 1021,6 hPa 0,0 l/m 18,9 km/h (3 Bft) 0 min 23,3 km/h (4 Bft)
04.05.2010 20:18 18,5 C 10,7 C 0,2 UV-I 0,0 C 40 % 52 % 0 % 1021,6 hPa 0,0 l/m 17,7 km/h (3 Bft) 0 min 16,5 km/h (3 Bft)
04.05.2010 20:20 18,5 C 10,6 C 0,2 UV-I 0,0 C 40 % 53 % 0 % 1021,6 hPa 0,0 l/m 15,3 km/h (3 Bft) 0 min 5,6 km/h (1 Bft)
04.05.2010 20:22 18,4 C 10,5 C 0,2 UV-I 0,0 C 40 % 53 % 0 % 1021,6 hPa 0,0 l/m 14,5 km/h (3 Bft) 0 min 10,0 km/h (2 Bft)
04.05.2010 20:24 18,4 C 10,4 C 0,2 UV-I 0,0 C 40 % 54 % 0 % 1021,6 hPa 0,0 l/m 13,7 km/h (3 Bft) 0 min 16,9 km/h (3 Bft)
04.05.2010 20:26 18,4 C 10,4 C 0,1 UV-I 0,0 C 40 % 54 % 0 % 1021,6 hPa 0,0 l/m 12,4 km/h (3 Bft) 0 min 18,9 km/h (3 Bft)
04.05.2010 20:28 18,4 C 10,4 C 0,1 UV-I 0,0 C 40 % 54 % 0 % 1021,6 hPa 0,0 l/m 12,8 km/h (3 Bft) 0 min 17,7 km/h (3 Bft)
04.05.2010 20:30 18,4 C 10,3 C 0,0 UV-I 0,0 C 40 % 54 % 0 % 1021,6 hPa 0,0 l/m 13,3 km/h (3 Bft) 0 min 20,9 km/h (4 Bft)
04.05.2010 20:32 18,2 C 10,3 C 0,0 UV-I 0,0 C 40 % 54 % 0 % 1021,9 hPa 0,0 l/m 15,3 km/h (3 Bft) 0 min 23,7 km/h (4 Bft)
04.05.2010 20:34 18,3 C 10,2 C 0,0 UV-I 0,0 C 40 % 54 % 0 % 1021,9 hPa 0,0 l/m 16,9 km/h (3 Bft) 0 min 21,3 km/h (4 Bft)
04.05.2010 20:36 18,3 C 10,3 C 0,0 UV-I 0,0 C 40 % 54 % 0 % 1021,9 hPa 0,0 l/m 16,9 km/h (3 Bft) 0 min 16,1 km/h (3 Bft)
04.05.2010 20:38 18,3 C 10,2 C 0,0 UV-I 0,0 C 40 % 54 % 0 % 1021,9 hPa 0,0 l/m 16,5 km/h (3 Bft) 0 min 21,3 km/h (4 Bft)
04.05.2010 20:40 18,2 C 10,1 C 0,0 UV-I 0,0 C 40 % 54 % 0 % 1021,9 hPa 0,0 l/m 16,5 km/h (3 Bft) 0 min 19,7 km/h (3 Bft)
04.05.2010 20:42 18,2 C 10,1 C 0,0 UV-I 0,0 C 40 % 55 % 0 % 1021,9 hPa 0,0 l/m 16,1 km/h (3 Bft) 0 min 22,9 km/h (4 Bft)
04.05.2010 20:44 18,2 C 10,0 C 0,0 UV-I 0,0 C 41 % 55 % 0 % 1021,9 hPa 0,0 l/m 15,3 km/h (3 Bft) 0 min 18,9 km/h (3 Bft)
04.05.2010 20:46 18,2 C 10,0 C 0,0 UV-I 0,0 C 41 % 55 % 0 % 1021,9 hPa 0,0 l/m 14,5 km/h (3 Bft) 0 min 24,9 km/h (4 Bft)
04.05.2010 20:48 18,1 C 9,9 C 0,0 UV-I 0,0 C 41 % 55 % 0 % 1021,9 hPa 0,0 l/m 14,9 km/h (3 Bft) 0 min 14,1 km/h (3 Bft)
04.05.2010 20:50 18,1 C 9,8 C 0,0 UV-I 0,0 C 41 % 55 % 0 % 1021,9 hPa 0,0 l/m 14,5 km/h (3 Bft) 0 min 17,7 km/h (3 Bft)
04.05.2010 20:52 18,1 C 9,9 C 0,0 UV-I 0,0 C 41 % 56 % 0 % 1021,9 hPa 0,0 l/m 14,1 km/h (3 Bft) 0 min 17,7 km/h (3 Bft)
04.05.2010 20:54 18,1 C 9,7 C 0,0 UV-I 0,0 C 41 % 55 % 0 % 1021,9 hPa 0,0 l/m 13,7 km/h (3 Bft) 0 min 19,7 km/h (3 Bft)
04.05.2010 20:56 18,0 C 9,9 C 0,0 UV-I 0,0 C 41 % 54 % 0 % 1021,9 hPa 0,0 l/m 14,1 km/h (3 Bft) 0 min 16,1 km/h (3 Bft)
04.05.2010 21:00 18,0 C 9,7 C 0,0 UV-I 0,0 C 41 % 54 % 0 % 1021,9 hPa 0,0 l/m 13,7 km/h (3 Bft) 0 min 15,3 km/h (3 Bft)
04.05.2010 21:02 18,0 C 9,7 C 0,0 UV-I 0,0 C 41 % 54 % 0 % 1021,9 hPa 0,0 l/m 14,1 km/h (3 Bft) 0 min 20,9 km/h (4 Bft)
04.05.2010 21:06 18,0 C 9,7 C 0,0 UV-I 0,0 C 41 % 55 % 0 % 1021,9 hPa 0,0 l/m 14,1 km/h (3 Bft) 0 min 22,9 km/h (4 Bft)
04.05.2010 21:08 17,9 C 9,6 C 0,0 UV-I 0,0 C 41 % 55 % 0 % 1021,9 hPa 0,0 l/m 14,5 km/h (3 Bft) 0 min 20,9 km/h (4 Bft)
04.05.2010 21:10 17,9 C 9,6 C 0,0 UV-I 0,0 C 41 % 55 % 0 % 1021,9 hPa 0,0 l/m 15,3 km/h (3 Bft) 0 min 14,5 km/h (3 Bft)
04.05.2010 21:12 17,9 C 9,6 C 0,0 UV-I 0,0 C 41 % 55 % 0 % 1022,0 hPa 0,0 l/m 14,9 km/h (3 Bft) 0 min 17,7 km/h (3 Bft)
04.05.2010 21:14 17,9 C 9,5 C 0,0 UV-I 0,0 C 41 % 55 % 0 % 1022,0 hPa 0,0 l/m 14,9 km/h (3 Bft) 0 min 20,5 km/h (4 Bft)
04.05.2010 21:20 17,8 C 9,3 C 0,0 UV-I 0,0 C 41 % 56 % 0 % 1022,0 hPa 0,0 l/m 14,9 km/h (3 Bft) 0 min 22,1 km/h (4 Bft)
04.05.2010 21:26 17,8 C 9,3 C 0,0 UV-I 0,0 C 41 % 58 % 0 % 1022,0 hPa 0,0 l/m 15,3 km/h (3 Bft) 0 min 18,9 km/h (3 Bft)
04.05.2010 21:28 17,8 C 9,2 C 0,0 UV-I 0,0 C 42 % 58 % 0 % 1022,0 hPa 0,0 l/m 14,1 km/h (3 Bft) 0 min 17,3 km/h (3 Bft)
04.05.2010 21:30 17,7 C 9,1 C 0,0 UV-I 0,0 C 42 % 58 % 0 % 1022,0 hPa 0,0 l/m 13,7 km/h (3 Bft) 0 min 12,4 km/h (3 Bft)
04.05.2010 21:32 17,7 C 9,1 C 0,0 UV-I 0,0 C 42 % 59 % 0 % 1022,2 hPa 0,0 l/m 12,4 km/h (3 Bft) 0 min 15,7 km/h (3 Bft)
04.05.2010 21:34 17,7 C 9,1 C 0,0 UV-I 0,0 C 42 % 59 % 0 % 1022,2 hPa 0,0 l/m 11,2 km/h (2 Bft) 0 min 12,4 km/h (3 Bft)
04.05.2010 21:36 17,7 C 8,9 C 0,0 UV-I 0,0 C 42 % 59 % 0 % 1022,2 hPa 0,0 l/m 10,8 km/h (2 Bft) 0 min 8,0 km/h (2 Bft)
04.05.2010 21:40 17,6 C 8,8 C 0,0 UV-I 0,0 C 42 % 60 % 0 % 1022,2 hPa 0,0 l/m 9,2 km/h (2 Bft) 0 min 12,0 km/h (2 Bft)
04.05.2010 21:42 17,6 C 8,9 C 0,0 UV-I 0,0 C 42 % 60 % 0 % 1022,2 hPa 0,0 l/m 9,2 km/h (2 Bft) 0 min 15,3 km/h (3 Bft)
04.05.2010 21:44 17,6 C 8,8 C 0,0 UV-I 0,0 C 42 % 60 % 0 % 1022,2 hPa 0,0 l/m 9,2 km/h (2 Bft) 0 min 9,6 km/h (2 Bft)
04.05.2010 21:46 17,6 C 8,7 C 0,0 UV-I 0,0 C 42 % 60 % 0 % 1022,2 hPa 0,0 l/m 8,8 km/h (2 Bft) 0 min 14,1 km/h (3 Bft)
04.05.2010 21:50 17,6 C 8,7 C 0,0 UV-I 0,0 C 42 % 61 % 0 % 1022,2 hPa 0,0 l/m 10,0 km/h (2 Bft) 0 min 16,1 km/h (3 Bft)
04.05.2010 21:52 17,6 C 8,7 C 0,0 UV-I 0,0 C 42 % 61 % 0 % 1022,4 hPa 0,0 l/m 9,6 km/h (2 Bft) 0 min 10,0 km/h (2 Bft)
04.05.2010 21:54 17,6 C 8,5 C 0,0 UV-I 0,0 C 42 % 61 % 0 % 1022,4 hPa 0,0 l/m 10,0 km/h (2 Bft) 0 min 21,3 km/h (4 Bft)
04.05.2010 21:56 17,6 C 8,5 C 0,0 UV-I 0,0 C 42 % 61 % 0 % 1022,4 hPa 0,0 l/m 10,8 km/h (2 Bft) 0 min 16,1 km/h (3 Bft)
04.05.2010 21:58 17,6 C 8,5 C 0,0 UV-I 0,0 C 42 % 61 % 0 % 1022,4 hPa 0,0 l/m 10,8 km/h (2 Bft) 0 min 11,6 km/h (2 Bft)
04.05.2010 22:00 17,6 C 8,4 C 0,0 UV-I 0,0 C 42 % 62 % 0 % 1022,4 hPa 0,0 l/m 11,2 km/h (2 Bft) 0 min 14,1 km/h (3 Bft)
04.05.2010 22:02 17,6 C 8,5 C 0,0 UV-I 0,0 C 42 % 62 % 0 % 1022,4 hPa 0,0 l/m 11,2 km/h (2 Bft) 0 min 9,6 km/h (2 Bft)
04.05.2010 22:06 17,5 C 8,3 C 0,0 UV-I 0,0 C 42 % 62 % 0 % 1022,4 hPa 0,0 l/m 11,6 km/h (2 Bft) 0 min 19,7 km/h (3 Bft)
04.05.2010 22:08 17,5 C 8,3 C 0,0 UV-I 0,0 C 43 % 62 % 0 % 1022,4 hPa 0,0 l/m 10,8 km/h (2 Bft) 0 min 5,6 km/h (1 Bft)
04.05.2010 22:14 17,5 C 8,2 C 0,0 UV-I 0,0 C 43 % 62 % 0 % 1022,4 hPa 0,0 l/m 10,4 km/h (2 Bft) 0 min 13,3 km/h (3 Bft)
04.05.2010 22:16 17,5 C 8,1 C 0,0 UV-I 0,0 C 43 % 62 % 0 % 1022,4 hPa 0,0 l/m 10,4 km/h (2 Bft) 0 min 16,5 km/h (3 Bft)
04.05.2010 22:18 17,4 C 8,0 C 0,0 UV-I 0,0 C 43 % 63 % 0 % 1022,4 hPa 0,0 l/m 10,0 km/h (2 Bft) 0 min 8,8 km/h (2 Bft)
04.05.2010 22:20 17,4 C 8,0 C 0,0 UV-I 0,0 C 43 % 63 % 0 % 1022,4 hPa 0,0 l/m 10,0 km/h (2 Bft) 0 min 15,3 km/h (3 Bft)
04.05.2010 22:22 17,4 C 8,1 C 0,0 UV-I 0,0 C 43 % 63 % 0 % 1022,4 hPa 0,0 l/m 9,6 km/h (2 Bft) 0 min 9,2 km/h (2 Bft)
04.05.2010 22:24 17,4 C 8,0 C 0,0 UV-I 0,0 C 43 % 63 % 0 % 1022,4 hPa 0,0 l/m 8,8 km/h (2 Bft) 0 min 7,2 km/h (2 Bft)
04.05.2010 22:26 17,4 C 7,9 C 0,0 UV-I 0,0 C 43 % 64 % 0 % 1022,4 hPa 0,0 l/m 8,0 km/h (2 Bft) 0 min 6,4 km/h (2 Bft)
04.05.2010 22:28 17,4 C 7,9 C 0,0 UV-I 0,0 C 43 % 64 % 0 % 1022,4 hPa 0,0 l/m 6,8 km/h (2 Bft) 0 min 5,6 km/h (1 Bft)
04.05.2010 22:32 17,4 C 7,7 C 0,0 UV-I 0,0 C 43 % 65 % 0 % 1022,3 hPa 0,0 l/m 5,6 km/h (1 Bft) 0 min 6,4 km/h (2 Bft)
04.05.2010 22:34 17,4 C 7,6 C 0,0 UV-I 0,0 C 43 % 65 % 0 % 1022,3 hPa 0,0 l/m 5,2 km/h (1 Bft) 0 min 6,0 km/h (2 Bft)
04.05.2010 22:36 17,4 C 7,6 C 0,0 UV-I 0,0 C 43 % 65 % 0 % 1022,3 hPa 0,0 l/m 4,8 km/h (1 Bft) 0 min 7,2 km/h (2 Bft)
04.05.2010 22:38 17,4 C 7,5 C 0,0 UV-I 0,0 C 43 % 65 % 0 % 1022,3 hPa 0,0 l/m 4,0 km/h (1 Bft) 0 min 0,0 km/h (0 Bft)
04.05.2010 22:40 17,4 C 7,5 C 0,0 UV-I 0,0 C 43 % 66 % 0 % 1022,3 hPa 0,0 l/m 4,0 km/h (1 Bft) 0 min 5,2 km/h (1 Bft)
04.05.2010 22:42 17,4 C 7,5 C 0,0 UV-I 0,0 C 43 % 66 % 0 % 1022,3 hPa 0,0 l/m 3,6 km/h (1 Bft) 0 min 0,0 km/h (0 Bft)
04.05.2010 22:46 17,2 C 7,3 C 0,0 UV-I 0,0 C 43 % 67 % 0 % 1022,3 hPa 0,0 l/m 3,6 km/h (1 Bft) 0 min 6,4 km/h (2 Bft)
04.05.2010 22:48 17,2 C 7,2 C 0,0 UV-I 0,0 C 43 % 67 % 0 % 1022,3 hPa 0,0 l/m 4,0 km/h (1 Bft) 0 min 4,4 km/h (1 Bft)
04.05.2010 22:51 17,2 C 7,3 C 0,0 UV-I 0,0 C 43 % 68 % 0 % 1022,2 hPa 0,0 l/m 4,0 km/h (1 Bft) 0 min 5,2 km/h (1 Bft)
04.05.2010 22:54 17,2 C 7,2 C 0,0 UV-I 0,0 C 43 % 68 % 0 % 1022,2 hPa 0,0 l/m 4,4 km/h (1 Bft) 0 min 6,8 km/h (2 Bft)
04.05.2010 22:56 17,2 C 7,2 C 0,0 UV-I 0,0 C 44 % 68 % 0 % 1022,2 hPa 0,0 l/m 4,8 km/h (1 Bft) 0 min 6,4 km/h (2 Bft)
04.05.2010 22:58 17,3 C 7,1 C 0,0 UV-I 0,0 C 44 % 68 % 0 % 1022,2 hPa 0,0 l/m 5,6 km/h (1 Bft) 0 min 10,8 km/h (2 Bft)
04.05.2010 23:00 17,2 C 7,1 C 0,0 UV-I 0,0 C 44 % 68 % 0 % 1022,2 hPa 0,0 l/m 6,4 km/h (2 Bft) 0 min 7,2 km/h (2 Bft)
04.05.2010 23:02 17,2 C 7,1 C 0,0 UV-I 0,0 C 43 % 68 % 0 % 1022,2 hPa 0,0 l/m 6,0 km/h (2 Bft) 0 min 0,0 km/h (0 Bft)
04.05.2010 23:04 17,2 C 7,0 C 0,0 UV-I 0,0 C 44 % 68 % 0 % 1022,2 hPa 0,0 l/m 6,0 km/h (2 Bft) 0 min 8,8 km/h (2 Bft)
04.05.2010 23:06 17,2 C 7,1 C 0,0 UV-I 0,0 C 44 % 68 % 0 % 1022,2 hPa 0,0 l/m 5,6 km/h (1 Bft) 0 min 4,0 km/h (1 Bft)
04.05.2010 23:08 17,2 C 7,1 C 0,0 UV-I 0,0 C 44 % 68 % 0 % 1022,2 hPa 0,0 l/m 4,4 km/h (1 Bft) 0 min 4,8 km/h (1 Bft)
04.05.2010 23:10 17,2 C 7,0 C 0,0 UV-I 0,0 C 44 % 68 % 0 % 1022,2 hPa 0,0 l/m 4,0 km/h (1 Bft) 0 min 9,2 km/h (2 Bft)
04.05.2010 23:12 17,2 C 6,9 C 0,0 UV-I 0,0 C 44 % 69 % 0 % 1022,6 hPa 0,0 l/m 4,4 km/h (1 Bft) 0 min 8,0 km/h (2 Bft)
04.05.2010 23:14 17,2 C 6,8 C 0,0 UV-I 0,0 C 44 % 69 % 0 % 1022,6 hPa 0,0 l/m 5,2 km/h (1 Bft) 0 min 7,2 km/h (2 Bft)
04.05.2010 23:16 17,2 C 6,9 C 0,0 UV-I 0,0 C 44 % 69 % 0 % 1022,6 hPa 0,0 l/m 5,6 km/h (1 Bft) 0 min 7,2 km/h (2 Bft)
04.05.2010 23:18 17,2 C 6,8 C 0,0 UV-I 0,0 C 44 % 69 % 0 % 1022,6 hPa 0,0 l/m 5,6 km/h (1 Bft) 0 min 6,4 km/h (2 Bft)
04.05.2010 23:20 17,2 C 6,8 C 0,0 UV-I 0,0 C 44 % 69 % 0 % 1022,6 hPa 0,0 l/m 5,2 km/h (1 Bft) 0 min 0,0 km/h (0 Bft)
04.05.2010 23:22 17,2 C 6,7 C 0,0 UV-I 0,0 C 44 % 70 % 0 % 1022,6 hPa 0,0 l/m 4,4 km/h (1 Bft) 0 min 0,0 km/h (0 Bft)
04.05.2010 23:24 17,2 C 6,6 C 0,0 UV-I 0,0 C 44 % 70 % 0 % 1022,6 hPa 0,0 l/m 4,0 km/h (1 Bft) 0 min 8,0 km/h (2 Bft)
04.05.2010 23:26 17,2 C 6,7 C 0,0 UV-I 0,0 C 44 % 70 % 0 % 1022,6 hPa 0,0 l/m 3,6 km/h (1 Bft) 0 min 8,4 km/h (2 Bft)
04.05.2010 23:28 17,2 C 6,5 C 0,0 UV-I 0,0 C 44 % 70 % 0 % 1022,6 hPa 0,0 l/m 3,2 km/h (1 Bft) 0 min 7,2 km/h (2 Bft)
04.05.2010 23:30 17,2 C 6,5 C 0,0 UV-I 0,0 C 44 % 70 % 0 % 1022,6 hPa 0,0 l/m 3,6 km/h (1 Bft) 0 min 0,0 km/h (0 Bft)
04.05.2010 23:32 17,2 C 6,5 C 0,0 UV-I 0,0 C 44 % 70 % 0 % 1022,4 hPa 0,0 l/m 4,4 km/h (1 Bft) 0 min 11,6 km/h (2 Bft)
04.05.2010 23:34 17,2 C 6,5 C 0,0 UV-I 0,0 C 44 % 70 % 0 % 1022,4 hPa 0,0 l/m 5,2 km/h (1 Bft) 0 min 10,0 km/h (2 Bft)
04.05.2010 23:36 17,2 C 6,4 C 0,0 UV-I 0,0 C 44 % 70 % 0 % 1022,4 hPa 0,0 l/m 6,0 km/h (2 Bft) 0 min 8,8 km/h (2 Bft)
04.05.2010 23:38 17,2 C 6,4 C 0,0 UV-I 0,0 C 44 % 70 % 0 % 1022,4 hPa 0,0 l/m 6,0 km/h (2 Bft) 0 min 7,2 km/h (2 Bft)
04.05.2010 23:40 17,2 C 6,4 C 0,0 UV-I 0,0 C 44 % 71 % 0 % 1022,4 hPa 0,0 l/m 6,8 km/h (2 Bft) 0 min 9,2 km/h (2 Bft)
04.05.2010 23:42 17,1 C 6,4 C 0,0 UV-I 0,0 C 44 % 71 % 0 % 1022,4 hPa 0,0 l/m 7,2 km/h (2 Bft) 0 min 7,2 km/h (2 Bft)
04.05.2010 23:44 17,2 C 6,4 C 0,0 UV-I 0,0 C 44 % 71 % 0 % 1022,4 hPa 0,0 l/m 7,2 km/h (2 Bft) 0 min 7,6 km/h (2 Bft)
04.05.2010 23:46 17,1 C 6,4 C 0,0 UV-I 0,0 C 44 % 71 % 0 % 1022,4 hPa 0,0 l/m 7,2 km/h (2 Bft) 0 min 7,6 km/h (2 Bft)
04.05.2010 23:48 17,1 C 6,3 C 0,0 UV-I 0,0 C 44 % 71 % 0 % 1022,4 hPa 0,0 l/m 6,8 km/h (2 Bft) 0 min 7,2 km/h (2 Bft)
04.05.2010 23:50 17,1 C 6,3 C 0,0 UV-I 0,0 C 44 % 71 % 0 % 1022,4 hPa 0,0 l/m 6,4 km/h (2 Bft) 0 min 5,6 km/h (1 Bft)
04.05.2010 23:52 17,1 C 6,3 C 0,0 UV-I 0,0 C 44 % 72 % 0 % 1022,4 hPa 0,0 l/m 5,6 km/h (1 Bft) 0 min 6,0 km/h (2 Bft)
04.05.2010 23:54 17,1 C 6,3 C 0,0 UV-I 0,0 C 44 % 72 % 0 % 1022,4 hPa 0,0 l/m 5,2 km/h (1 Bft) 0 min 5,6 km/h (1 Bft)
04.05.2010 23:56 17,1 C 6,3 C 0,0 UV-I 0,0 C 44 % 72 % 0 % 1022,4 hPa 0,0 l/m 4,4 km/h (1 Bft) 0 min 5,6 km/h (1 Bft)
04.05.2010 23:58 17,1 C 6,2 C 0,0 UV-I 0,0 C 44 % 72 % 0 % 1022,4 hPa 0,0 l/m 4,0 km/h (1 Bft) 0 min 5,6 km/h (1 Bft)
_ Min-Zeit 06:24 23:58 00:00 00:00 17:50 17:42 00:00 00:00 - 23:28 - 04:32
Minimum _ 16,9 C 6,2 C 0,0 UV-I 0,0 C 36 % 45 % 0 % 1018,1 hPa - 3,2 km/h (1 Bft) - 0,0 km/h (0 Bft)
_ Max-Zeit 17:44 17:22 17:10 17:30 00:00 00:52 12:24 17:52 00:00 18:12 12:24 18:40
Maximum _ 21,6 C 13,5 C 11,8 UV-I 4,4 C 53 % 91 % 100 % 1025,2 hPa 0,0 l/m 23,7 km/h
W-SW (4 Bft)
2 min 54,6 km/h
S-SW (7 Bft)
Durchschnitt _ 17,9 C 8,9 C 2,1 UV-I 0,7 C 48 % 72 % 19 % 1021,5 hPa #0,0 l/m 13,7 km/h (3 Bft) #2:04 h 18,6 km/h (3 Bft)
© 2012 W. Hausmann